GEFSMA_con_probscp_192.txt.gz
Probability
0 0 0 0 0 0 0 0 0 0 0 0 0 0 0 0 0 0 0 0 0 0 0 0 0 0 0 0 0 0 0 0 0 0 0 0 0 0 0 0 0 0 0
0 0 0 0 0 0 0 0 0 0 0 0 0 0 0 0 0 0 0 0 0 0 0 0 0 0 0 0 0 0 0 0 0 0 0 0 0 0 0 0 0 0 0
0 0 0 0 0 0 0 0 0 0 0 0 0 0 0 0 0 0 0 0 0 0 0 1 2 2 2 2 1 1 1 1 0 0 0 0 0 0 0 0 0 0 0
0 0 0 0 0 0 0 0 0 0 0 0 0 0 0 0 0 0 0 0 0 0 1 2 5 6 6 4 3 2 2 2 1 0 0 0 0 0 0 0 0 0 0
0 0 0 0 0 0 0 0 0 0 0 0 0 0 0 0 0 0 0 0 0 0 1 3 5 7 7 5 4 4 3 3 2 1 0 0 0 0 0 0 0 0 0
0 0 0 0 0 0 0 0 0 0 0 0 0 0 0 0 0 0 0 0 0 0 2 3 3 5 6 6 6 6 5 4 4 2 1 0 0 0 0 0 0 0 0
0 0 1 1 1 1 0 0 0 0 0 0 0 0 0 0 0 0 0 1 0 0 1 2 2 2 4 6 6 6 6 6 5 4 2 1 0 0 0 0 0 0 0
0 1 3 3 3 2 1 0 0 0 0 0 0 0 0 0 0 0 0 0 0 0 0 1 1 1 2 3 3 3 5 5 5 5 4 2 0 0 0 0 0 0 0
1 4 6 5 4 3 2 0 0 0 0 0 0 0 0 0 0 0 0 0 0 0 0 0 0 0 0 1 0 1 3 4 4 6 6 5 2 0 0 0 0 0 0
5 7 8 7 6 4 2 1 1 2 1 1 1 0 0 0 0 0 0 0 0 0 0 0 0 1 1 1 1 1 2 2 4 6 8 8 6 3 1 1 0 0 0
9 10 10 9 8 6 4 3 3 4 4 4 3 1 0 0 0 0 0 0 0 0 0 0 1 2 2 2 2 2 2 3 3 5 7 9 8 7 6 4 2 2 2
12 11 11 10 9 7 6 6 6 6 7 8 6 3 1 1 0 0 0 0 0 0 0 0 1 2 3 3 3 3 3 2 2 3 4 5 7 9 10 8 6 5 5
10 10 11 11 9 8 7 6 5 5 7 9 8 4 2 1 0 0 0 0 0 0 0 0 0 1 2 2 2 2 1 1 1 1 1 2 4 6 9 10 9 8 7
7 8 10 11 10 8 6 5 4 3 4 5 6 4 2 1 1 1 1 0 0 0 0 0 0 0 1 1 1 1 0 0 0 0 0 0 1 2 4 5 5 6 6
5 7 9 9 8 6 4 3 3 3 3 3 3 3 2 1 2 2 2 1 0 0 0 0 0 0 0 0 0 0 0 0 0 0 0 0 0 0 1 1 1 2 2
4 5 7 7 6 3 2 2 3 3 4 3 3 3 2 2 2 3 3 2 0 0 0 0 0 0 0 0 0 0 0 0 0 0 0 0 0 0 0 0 0 0 0
3 4 5 5 3 2 1 1 1 2 3 3 3 3 3 2 2 2 2 1 0 0 0 0 0 0 0 0 0 0 0 0 0 0 0 0 0 0 0 0 0 0 0
4 4 4 2 1 0 0 0 0 1 2 3 3 3 3 2 2 2 1 0 0 0 0 0 0 0 0 0 0 0 0 0 0 0 0 0 0 0 0 0 0 0 0
6 5 3 2 0 0 0 0 0 0 1 2 3 2 1 1 2 1 0 0 0 0 0 0 0 0 0 0 0 0 0 0 0 0 0 0 0 0 0 0 0 0 0
6 5 3 2 1 0 0 0 0 0 0 1 1 1 1 0 1 1 0 0 0 0 0 0 0 0 0 0 0 0 0 0 0 0 0 0 0 0 0 0 0 0 0
6 4 3 3 2 0 0 0 0 0 0 0 0 0 0 0 0 0 0 0 0 0 0 0 0 0 0 0 0 0 0 0 0 0 0 0 0 0 0 0 0 0 0
5 4 3 2 1 0 0 0 0 0 0 0 0 0 0 0 0 0 0 0 0 0 0 0 0 0 0 0 0 0 0 0 0 0 0 0 0 0 0 0 0 0 0
3 2 1 1 0 0 0 0 0 0 0 0 0 0 0 0 0 0 0 0 0 0 0 0 0 0 0 0 0 0 0 0 0 0 0 0 0 0 0 0 0 0 0
2 1 0 0 0 0 0 0 0 0 0 0 0 0 0 0 0 0 0 0 0 0 0 0 0 0 0 0 0 0 0 0 0 0 0 0 0 0 0 0 0 0 0
1 0 0 0 0 0 0 0 0 0 0 0 0 0 0 0 0 0 0 0 1 0 0 0 0 0 0 0 0 0 0 0 0 0 0 0 0 0 0 0 0 0 0
0 0 0 0 0 0 0 0 0 0 0 0 0 0 0 0 0 0 0 0 1 0 0 0 0 0 0 0 0 0 0 0 0 0 0 0 0 0 0 0 0 0 0

GEFSMA_con_probscp_198.txt.gz
Probability
0 0 0 0 0 0 0 0 0 0 0 0 0 0 0 0 0 0 0 0 0 0 0 0 0 0 0 0 0 0 0 0 0 0 0 0 0 0 0 0 0 0 0
0 0 0 0 0 0 0 0 0 0 0 0 0 0 0 0 0 0 0 0 0 0 0 0 0 0 0 0 0 0 0 0 0 0 0 0 0 0 0 0 0 0 0
0 0 0 0 0 0 0 0 0 0 0 0 0 0 0 0 0 0 0 0 0 0 1 1 1 1 1 1 0 0 0 0 0 0 0 0 0 0 0 0 0 0 0
0 0 0 0 0 0 0 0 0 0 0 0 0 0 0 0 0 0 0 0 0 0 1 2 2 2 2 1 0 0 0 0 0 0 0 0 0 0 0 0 0 0 0
0 0 0 0 0 0 0 0 0 0 0 0 0 0 0 0 0 0 0 0 0 0 1 1 1 1 1 1 0 0 0 0 0 0 0 0 0 0 0 0 0 0 0
0 0 0 0 0 0 1 1 1 0 0 0 0 0 0 0 0 0 0 0 0 0 0 0 0 0 0 0 0 0 0 0 0 0 0 0 0 0 0 0 0 0 0
0 0 0 0 0 0 1 1 1 0 0 0 0 0 0 0 0 0 0 0 0 0 0 0 0 0 0 0 0 0 0 0 0 1 1 1 0 0 0 0 0 0 0
0 0 0 0 0 0 1 1 0 0 0 0 0 0 0 0 0 0 0 0 0 0 0 0 0 0 0 0 0 0 0 0 0 1 2 3 2 1 0 0 0 0 0
0 0 0 0 0 1 1 1 1 1 1 0 0 0 0 0 0 0 0 0 0 0 0 0 0 0 0 0 0 0 0 0 0 2 4 6 6 3 2 1 1 0 0
0 0 1 1 1 2 3 3 2 2 2 1 1 1 0 0 0 0 0 0 0 0 0 0 0 0 0 0 0 0 0 0 0 2 5 9 10 8 6 5 3 1 1
0 0 1 2 2 3 4 4 4 4 4 3 2 2 1 1 0 0 0 0 0 0 0 0 0 0 0 0 0 0 0 0 0 1 3 6 8 8 9 8 5 3 2
0 0 1 2 3 3 3 3 4 4 4 3 3 3 3 2 1 0 0 0 0 0 0 0 0 0 0 0 0 0 0 0 0 0 0 1 3 4 6 7 5 4 4
0 0 1 2 3 2 2 3 4 4 3 3 2 2 3 3 2 1 0 0 0 0 0 0 0 0 1 1 1 0 0 0 0 0 0 0 0 0 1 3 3 4 4
0 1 2 3 3 3 2 3 4 3 2 2 1 0 1 2 1 0 0 0 0 0 0 0 0 0 1 1 1 0 0 0 0 0 0 0 0 0 0 1 1 2 3
0 1 3 3 3 2 2 3 2 1 1 1 0 0 0 0 0 0 0 0 0 0 0 0 0 0 0 0 0 0 0 0 0 0 0 0 0 0 0 0 0 1 1
1 2 3 3 2 1 1 1 1 0 0 0 0 0 0 0 0 0 1 1 0 0 0 0 0 0 0 0 0 0 0 0 0 0 0 0 0 0 0 0 0 0 0
1 2 3 4 2 1 0 0 0 0 0 0 0 0 0 0 0 0 1 1 0 0 0 0 0 0 0 0 0 0 0 0 0 0 0 0 0 0 0 0 0 0 0
3 3 5 5 4 1 0 0 0 0 0 0 1 1 0 0 0 0 1 1 0 0 0 0 0 0 0 0 0 0 0 0 0 0 0 0 0 0 0 0 0 0 0
5 5 7 6 4 2 1 1 0 0 1 1 1 1 0 0 0 0 0 0 0 0 1 0 0 0 0 0 0 0 0 0 0 0 0 0 0 0 0 0 0 0 0
5 6 7 6 3 2 2 2 1 1 1 1 1 1 0 0 0 0 0 0 0 0 0 0 0 0 0 0 0 0 0 0 0 0 0 0 0 0 0 0 0 0 0
4 5 6 5 3 2 3 3 2 2 1 1 0 0 0 0 0 0 0 0 0 0 0 0 0 0 0 0 0 0 0 0 0 0 0 0 0 0 0 0 0 0 0
3 3 3 3 2 2 2 2 2 1 0 0 0 0 0 0 0 0 0 0 0 0 0 0 0 0 0 0 0 0 0 0 0 0 0 0 0 0 0 0 0 0 0
3 2 1 1 1 0 1 1 1 0 0 0 0 0 0 0 0 0 0 0 0 0 0 0 0 0 0 0 0 0 0 0 0 0 0 0 0 0 0 0 0 0 0
2 1 0 0 0 0 0 0 0 0 0 0 0 0 0 0 0 0 0 0 0 0 0 0 0 0 0 0 0 0 0 0 0 0 0 0 0 0 0 0 0 0 0
2 2 1 0 0 0 0 0 0 0 0 0 0 0 0 0 0 0 0 0 0 0 0 0 0 0 0 0 0 0 0 0 0 0 0 0 0 0 0 0 0 0 0
3 3 2 1 0 0 0 0 0 0 0 0 0 0 0 0 0 0 0 0 0 0 0 0 0 0 0 0 0 0 0 0 0 0 0 0 0 0 0 0 0 0 0

GEFSMA_con_probscp_204.txt.gz
Probability
0 0 0 0 0 0 0 0 0 0 0 0 0 0 0 0 0 0 0 0 0 1 1 1 1 1 0 0 0 1 1 1 0 0 0 0 0 0 0 0 0 0 0
0 0 0 0 0 0 0 0 0 0 0 0 0 0 0 0 0 0 0 0 1 2 2 2 2 1 0 0 1 2 2 2 1 1 1 0 0 0 0 0 0 0 0
0 0 0 0 0 0 0 0 0 0 0 0 0 0 0 0 0 0 0 0 1 2 2 2 2 1 0 0 1 2 3 3 3 2 2 1 1 0 0 0 0 0 0
0 0 0 0 0 0 0 0 0 0 0 0 0 0 0 0 0 0 0 0 0 1 1 1 1 1 1 1 0 1 2 3 3 3 3 3 2 1 0 0 0 0 0
1 0 0 0 0 0 0 0 0 0 0 0 0 0 0 0 0 0 0 0 0 0 0 1 2 2 2 1 0 0 1 2 3 3 3 3 3 2 1 0 0 0 0
2 1 0 0 1 1 1 0 0 0 0 0 0 0 0 0 0 0 0 0 0 0 0 1 2 2 2 1 0 0 1 2 2 3 3 3 2 2 1 0 0 0 0
2 1 0 1 2 2 1 0 0 0 0 0 0 0 0 0 0 0 0 0 0 0 0 0 1 2 3 1 0 1 2 2 2 1 2 1 1 1 0 0 0 0 0
1 1 0 1 2 1 1 1 1 1 1 1 1 1 1 1 0 0 0 1 1 1 1 1 2 3 4 4 2 1 2 3 2 2 1 1 1 1 1 0 0 0 0
1 1 1 1 2 1 2 4 5 4 3 3 4 4 3 2 1 0 0 1 2 2 2 3 2 3 5 6 5 2 1 2 3 2 2 1 2 3 2 1 1 0 0
2 2 2 3 4 4 5 8 9 8 6 6 7 8 7 5 4 2 1 2 3 3 3 3 3 3 5 7 6 3 1 1 1 1 1 1 3 4 4 3 2 1 1
4 4 5 6 7 7 9 9 9 9 9 9 11 12 11 9 8 6 3 3 3 4 4 3 3 4 4 5 5 3 2 1 0 0 0 1 2 3 4 4 3 2 2
5 7 8 9 9 10 10 10 9 10 11 13 15 16 15 13 12 9 5 3 3 4 4 3 3 2 3 4 4 2 2 1 0 0 0 0 1 2 3 3 3 3 3
7 8 9 10 10 10 11 11 11 11 12 12 14 17 19 17 14 11 6 4 3 4 4 3 1 1 3 5 3 1 1 1 0 0 0 0 0 1 1 1 2 3 3
7 8 9 10 10 10 10 11 11 11 10 10 10 13 17 16 13 10 7 5 4 5 5 3 2 2 4 4 2 0 0 0 0 0 0 0 0 0 0 0 0 1 2
9 9 10 11 11 10 10 10 10 9 8 7 6 7 11 13 12 10 9 8 7 7 5 4 4 5 5 3 1 0 0 0 0 0 0 0 0 0 0 0 0 0 1
10 10 11 11 10 10 11 12 10 8 7 6 5 4 6 8 10 11 12 12 11 10 7 6 7 8 8 6 3 2 2 1 0 0 0 0 0 0 0 0 0 0 0
8 9 10 11 10 10 12 13 10 8 7 7 5 3 3 5 8 10 12 15 15 13 10 8 9 10 11 11 8 7 6 3 1 0 0 0 0 0 0 0 0 0 0
7 9 10 11 10 11 12 13 11 9 9 8 5 3 2 3 5 7 9 11 13 14 13 11 10 10 11 11 9 8 6 3 1 0 0 0 0 0 0 0 0 0 0
9 11 12 11 10 11 12 13 12 12 11 8 5 3 2 3 4 4 4 5 8 10 12 11 9 9 7 7 8 7 5 3 1 0 0 0 0 0 0 0 0 0 0
11 12 12 11 10 10 11 12 12 13 12 8 5 4 3 3 3 2 1 2 4 7 10 10 8 6 6 6 7 7 5 5 3 2 1 0 0 0 0 0 0 0 0
11 11 11 10 10 9 9 10 12 14 13 10 7 5 4 2 1 1 0 0 2 5 7 9 8 7 6 7 7 6 6 5 4 4 3 1 0 0 0 0 0 0 0
10 10 10 10 10 8 7 7 11 14 13 10 8 6 4 1 0 0 0 0 1 2 4 7 8 7 7 6 6 6 6 6 4 4 3 2 1 1 0 0 0 0 0
11 11 11 11 9 7 3 3 7 11 11 9 7 6 4 2 1 1 0 0 0 1 2 3 4 5 4 3 3 4 4 4 3 2 2 1 0 0 0 0 0 0 0
10 10 10 9 8 5 2 0 3 6 7 6 5 5 4 2 1 0 0 0 0 0 0 1 1 1 1 1 1 1 1 1 1 1 1 0 0 0 0 0 0 0 0
7 8 8 7 5 3 1 0 1 4 5 3 2 2 1 1 0 0 0 0 0 0 0 0 0 0 0 0 0 0 0 0 0 0 0 0 0 0 0 0 0 0 0
5 6 6 5 4 3 1 0 2 4 5 2 1 0 0 0 0 0 0 0 0 0 0 0 0 0 0 0 0 0 0 0 0 0 0 0 0 0 0 0 0 0 0

GEFSMA_con_probscp_210.txt.gz
Probability
0 0 0 0 0 0 0 1 0 0 0 0 0 0 0 0 1 0 0 0 1 2 4 4 3 2 1 1 2 2 2 1 1 0 0 0 0 0 0 0 0 0 0
0 0 0 0 0 0 0 1 1 1 0 0 0 0 0 1 2 1 1 1 2 4 5 4 3 3 2 2 3 3 3 2 2 1 1 1 1 0 0 0 0 0 0
0 0 0 0 0 0 0 1 1 1 0 0 0 0 1 3 4 3 3 2 2 3 4 4 4 3 3 3 3 3 3 3 3 3 3 3 2 1 1 0 0 0 0
1 0 0 0 0 0 0 0 1 1 1 0 0 0 1 3 4 4 4 3 2 2 3 4 4 4 3 3 3 4 3 3 3 4 4 4 3 3 2 1 0 0 0
1 1 0 0 0 0 0 1 1 1 2 1 1 1 1 2 2 3 3 3 3 3 3 4 4 3 3 3 4 5 5 3 3 3 3 3 3 3 3 2 1 0 0
3 3 2 2 2 2 2 3 3 3 4 3 1 0 0 0 1 2 3 3 3 2 3 5 6 5 4 3 4 6 7 5 3 2 2 2 2 2 2 2 1 0 0
6 5 4 4 5 5 5 6 5 5 5 4 2 1 1 0 1 2 3 3 2 2 4 8 12 11 8 4 3 4 6 6 5 4 2 1 1 1 1 1 0 0 0
8 6 6 6 7 7 8 9 8 7 6 4 3 3 2 1 1 1 3 3 3 4 6 10 15 18 14 8 4 3 4 4 5 6 5 4 1 0 0 0 0 0 0
11 9 7 7 7 7 8 10 10 9 7 5 4 4 4 3 2 2 2 4 7 10 10 9 13 19 20 15 9 5 2 1 3 6 8 7 4 1 0 0 0 0 0
16 13 10 9 8 7 8 10 11 11 8 6 5 6 6 6 5 4 3 6 11 15 13 9 10 17 22 21 16 9 3 1 1 4 7 8 6 3 2 1 0 0 0
19 16 14 14 12 9 9 11 13 12 10 8 7 7 7 8 7 6 5 5 8 13 14 12 11 14 19 20 17 12 7 4 1 2 5 6 5 4 4 3 2 1 0
18 17 17 17 15 13 11 13 16 15 14 11 9 8 8 8 8 7 6 4 4 8 12 14 13 13 15 16 14 12 10 6 1 0 1 2 3 3 3 3 3 2 1
16 15 15 17 18 17 15 16 18 18 17 14 11 9 9 9 9 8 6 3 1 4 8 12 15 15 15 15 14 11 8 5 1 0 0 0 1 1 1 1 1 1 0
13 13 13 17 19 19 19 20 19 18 17 14 12 10 9 9 9 8 5 3 1 1 4 9 14 16 16 16 14 10 7 3 1 0 0 0 0 0 0 0 0 0 0
10 11 13 16 19 19 20 21 20 18 16 13 12 11 10 9 7 5 4 3 2 1 2 5 9 12 14 13 10 9 7 4 1 0 0 0 0 0 0 0 0 0 0
9 9 11 13 16 18 19 19 19 17 14 13 12 12 12 10 6 3 3 4 3 2 2 3 5 8 11 9 7 9 8 5 2 1 0 0 0 0 0 0 0 0 0
9 9 9 10 12 16 17 17 16 15 13 13 12 12 13 12 8 5 5 5 4 3 3 3 4 7 9 8 7 9 8 5 3 1 0 0 0 0 0 0 0 0 0
11 10 9 10 12 14 15 15 13 12 13 13 12 12 13 13 11 8 6 6 5 4 3 3 5 6 7 9 8 8 7 5 3 1 0 0 0 0 0 0 0 0 0
13 12 11 11 13 14 13 12 11 11 12 12 11 10 10 12 11 8 7 6 5 4 4 3 3 4 6 7 7 6 5 3 2 1 0 0 0 0 0 0 0 0 0
12 12 11 11 12 12 12 10 9 9 9 10 9 9 8 8 8 7 6 5 4 3 4 2 1 3 5 5 3 2 2 1 1 0 0 0 0 0 0 0 0 0 0
11 11 11 11 11 10 10 10 9 8 8 8 9 9 6 4 3 3 3 3 2 2 3 2 1 2 4 3 1 1 1 1 1 0 0 0 0 0 0 0 0 0 0
12 12 10 9 8 8 8 7 8 8 7 8 9 8 5 1 0 0 0 0 0 1 2 2 1 1 1 1 1 1 1 1 1 0 0 0 0 0 0 0 0 0 0
14 12 10 7 6 6 6 4 5 6 7 7 8 8 5 2 1 1 1 0 0 0 1 2 1 0 0 0 0 0 0 0 0 0 0 0 0 0 0 0 0 0 0
13 10 7 5 4 4 4 2 2 4 6 7 7 7 6 3 2 2 1 1 1 0 0 1 1 0 0 0 0 0 0 0 0 0 0 0 0 0 0 0 0 0 0
9 6 4 3 3 3 3 2 2 4 6 6 6 7 5 2 1 1 1 0 0 0 0 0 0 0 0 0 0 0 0 0 0 0 0 0 0 0 0 0 0 0 0
7 5 3 3 3 3 3 2 2 5 6 5 5 6 4 2 1 0 0 0 0 0 0 0 0 0 0 0 0 0 0 0 0 0 0 0 0 0 0 0 0 0 0

GEFSMA_con_probscp_216.txt.gz
Probability
0 0 0 0 0 0 0 0 0 0 0 0 0 0 0 0 0 0 0 1 2 3 3 3 3 3 3 2 1 1 1 1 1 1 0 0 0 0 0 0 0 0 0
0 0 0 0 0 0 0 0 0 0 0 0 0 0 0 0 0 0 0 1 2 3 3 3 3 3 3 3 2 2 2 2 2 2 1 0 0 0 0 0 0 0 0
0 0 0 0 0 0 0 0 0 0 0 0 0 0 0 0 0 0 0 0 1 2 3 3 3 3 3 3 4 3 3 3 3 3 2 1 0 0 0 0 0 0 0
0 0 0 0 0 0 0 0 0 0 0 0 0 0 0 0 0 0 0 0 0 1 2 3 3 3 3 4 4 3 3 2 2 3 3 2 1 0 0 0 0 0 0
0 0 0 0 0 0 0 0 0 0 0 0 0 0 0 0 0 0 0 0 0 0 1 1 2 3 3 4 5 4 2 1 2 3 3 2 1 0 0 0 0 0 0
0 0 0 0 0 0 0 0 0 0 0 0 0 0 0 0 0 0 0 0 0 0 0 0 1 1 3 4 6 6 4 2 3 4 2 1 0 0 0 0 0 0 0
0 0 0 0 0 0 0 0 0 0 0 0 0 0 0 0 0 0 0 0 0 0 0 0 0 0 1 3 6 7 6 5 5 5 2 1 0 0 0 0 0 0 0
0 0 0 0 0 0 0 0 0 0 0 0 0 0 0 0 0 0 0 0 0 0 1 1 1 1 0 1 4 6 7 7 7 6 4 2 1 0 0 0 0 0 0
0 0 0 1 1 1 0 0 0 0 0 0 0 0 0 0 0 0 0 0 0 0 1 1 2 2 2 1 2 5 6 6 7 6 4 4 2 0 0 0 0 0 0
0 0 1 2 2 2 1 1 1 1 1 1 0 0 0 0 0 0 0 0 0 0 0 1 1 2 3 3 3 3 3 4 5 5 4 3 2 1 1 1 0 0 0
0 0 1 2 3 3 3 3 3 3 3 3 1 0 0 0 0 0 0 0 0 0 0 0 0 1 3 4 5 4 3 3 2 3 2 1 2 3 3 2 2 1 1
0 0 1 2 3 3 4 4 5 6 6 5 3 1 0 0 0 0 0 0 0 0 0 0 0 0 1 2 4 5 6 3 1 1 1 0 1 2 2 3 3 2 2
0 0 1 3 4 4 5 6 6 6 6 6 5 3 1 1 0 0 0 0 0 0 0 0 0 0 0 0 2 4 5 3 1 0 0 0 0 0 1 2 2 2 2
1 1 2 4 5 6 6 6 6 6 6 6 6 5 3 2 1 1 0 0 0 0 0 0 0 0 0 0 0 1 2 2 1 0 0 0 0 0 0 1 1 1 2
3 3 4 5 6 6 6 6 6 6 6 6 5 4 3 3 3 2 1 0 0 0 0 0 0 0 1 0 0 0 0 1 1 0 0 0 0 0 0 1 0 0 1
5 5 5 5 6 6 6 6 6 6 6 6 4 3 3 3 3 2 1 1 1 1 1 0 0 0 0 0 0 0 0 1 1 0 0 0 0 0 0 0 0 0 0
5 5 4 4 4 4 5 6 6 6 6 6 4 3 3 3 3 2 2 2 2 2 1 0 0 0 0 0 0 0 0 0 0 0 0 0 0 0 0 0 0 0 0
5 4 3 3 3 3 4 4 5 6 6 5 4 3 3 3 2 1 1 1 1 1 1 0 0 0 0 0 0 0 0 0 0 0 0 0 0 0 0 0 0 0 0
4 3 3 3 4 4 4 4 4 5 5 4 3 3 3 2 1 0 0 0 0 0 0 0 0 0 0 0 0 0 0 0 0 0 0 0 0 0 0 0 0 0 0
3 3 3 4 5 5 5 3 3 3 3 3 3 3 3 2 0 0 0 0 0 0 0 0 0 0 0 0 0 0 0 0 0 0 0 0 0 0 0 0 0 0 0
4 4 4 4 5 5 4 2 1 2 2 3 3 2 2 1 0 0 0 0 0 0 0 0 0 0 0 0 0 0 0 0 0 0 0 0 0 0 0 0 0 0 0
5 5 5 5 6 5 3 1 0 1 1 2 2 1 0 0 0 0 0 0 0 0 0 0 0 0 0 0 0 0 0 0 0 0 0 0 0 0 0 0 0 0 0
4 4 4 5 5 4 3 1 0 0 0 1 1 1 1 0 0 0 0 0 0 0 0 0 0 0 0 0 0 0 0 0 0 0 0 0 0 0 0 0 0 0 0
3 3 3 4 4 3 3 2 1 1 1 1 1 1 2 1 0 0 0 0 0 0 0 0 0 0 0 0 0 0 0 0 0 0 0 0 0 0 0 0 0 0 0
3 3 3 3 3 3 3 3 2 2 2 2 1 1 2 1 0 0 0 0 0 0 0 0 0 0 0 0 0 0 0 0 0 0 0 0 0 0 0 0 0 0 0
3 3 3 3 3 3 3 3 2 3 3 2 1 0 1 1 0 0 0 0 0 0 0 0 0 0 0 0 0 0 0 0 0 0 0 0 0 0 0 0 0 0 0

GEFSMA_con_probscp_222.txt.gz
Probability
0 0 0 0 0 0 0 0 0 0 0 0 0 0 0 0 0 0 0 0 0 0 0 0 0 0 0 0 0 1 1 0 0 1 1 0 0 0 0 0 0 0 0
0 0 0 0 0 0 0 0 0 0 0 0 0 0 0 0 0 0 0 0 0 0 0 0 0 0 0 1 1 2 2 1 1 2 2 1 1 1 0 0 0 0 0
0 0 0 0 0 0 0 0 0 0 0 0 0 0 0 0 0 0 0 0 0 0 0 0 0 0 0 1 2 2 3 2 2 2 2 2 2 2 1 0 0 0 0
0 0 0 0 0 0 0 0 0 0 0 0 0 0 0 0 0 0 0 0 0 0 0 0 0 0 0 1 1 1 2 2 2 1 1 2 3 2 1 0 0 0 0
0 0 0 0 0 0 0 0 0 0 0 0 0 0 0 0 0 0 0 0 0 0 0 0 0 0 0 0 0 0 1 1 2 1 0 1 2 1 0 0 0 0 0
0 0 0 0 0 0 0 0 0 0 0 0 0 0 0 0 0 0 0 0 0 0 0 0 0 0 0 0 0 0 1 1 2 2 2 1 1 0 0 0 0 0 0
0 0 0 0 0 0 0 0 0 0 0 0 0 0 0 0 0 0 0 0 0 0 0 0 0 0 0 0 1 1 2 3 4 5 4 2 1 0 0 0 0 0 0
0 0 0 0 0 0 0 0 0 0 0 0 0 0 0 0 0 0 0 0 0 0 0 0 0 0 0 0 1 2 3 4 5 6 6 4 2 1 0 0 0 0 0
0 0 0 0 0 0 0 0 0 0 0 0 0 0 0 0 0 0 0 0 0 0 0 0 0 0 0 0 1 1 2 2 2 4 6 6 4 3 2 1 0 0 0
0 0 0 0 0 0 1 1 1 1 0 0 0 0 0 0 0 0 0 0 0 0 0 0 0 0 0 0 0 0 0 0 0 2 3 5 5 5 5 4 2 1 1
0 0 0 0 1 2 3 3 3 3 2 1 1 1 1 1 1 0 0 0 0 0 0 0 0 0 0 0 0 0 0 0 0 0 1 2 3 4 6 6 5 3 2
0 0 0 0 2 4 5 6 6 5 5 4 4 3 3 3 2 1 0 0 0 0 0 0 0 0 0 0 0 0 0 0 0 0 0 0 1 2 4 6 7 4 2
0 0 0 0 2 4 6 6 6 6 6 6 6 6 6 5 4 2 1 1 0 0 0 0 0 0 0 0 0 0 0 0 0 0 0 0 0 1 2 4 5 4 1
0 0 1 1 2 4 5 6 6 6 6 6 6 6 6 6 5 4 3 2 1 0 0 0 0 0 0 0 0 0 0 0 0 0 0 0 0 0 1 2 3 3 2
0 1 2 3 3 3 4 4 5 6 6 6 6 6 6 6 6 4 3 3 2 1 1 0 0 0 0 0 0 0 0 0 0 0 0 0 0 0 0 1 1 2 2
1 2 3 3 3 3 3 3 4 4 4 4 5 6 6 6 6 5 4 4 3 2 2 1 0 0 0 0 0 0 0 0 0 0 0 0 0 0 0 0 0 1 1
3 3 3 3 3 3 3 3 3 3 3 3 4 4 5 6 5 5 5 4 3 2 1 1 0 0 0 0 0 0 0 0 0 0 0 0 0 0 0 0 0 0 0
3 3 3 3 3 3 3 3 3 3 3 3 3 3 3 4 3 3 3 2 1 1 0 0 0 0 0 0 0 0 0 0 0 0 0 0 0 0 0 0 0 0 0
3 3 3 3 3 3 3 3 3 3 2 2 2 2 2 2 1 1 1 0 0 0 0 0 0 0 0 0 0 0 0 0 0 0 0 0 0 0 0 0 0 0 0
3 3 3 3 3 3 3 3 2 1 1 1 1 1 1 1 1 0 0 0 0 0 0 0 0 0 0 0 0 0 0 0 0 0 0 0 0 0 0 0 0 0 0
3 3 3 3 3 3 2 1 1 0 0 0 0 0 0 0 0 0 0 0 0 0 0 0 0 0 0 0 0 0 0 0 0 0 0 0 0 0 0 0 0 0 0
3 3 3 3 2 1 1 0 0 0 0 0 0 0 0 0 0 0 0 0 0 0 0 0 0 0 0 0 0 0 0 0 0 0 0 0 0 0 0 0 0 0 0
3 3 2 1 1 1 0 0 0 0 0 0 0 0 0 0 0 0 0 0 0 0 0 0 0 0 0 0 0 0 0 0 0 0 0 0 0 0 0 0 0 0 0
3 3 2 1 1 1 0 0 0 0 0 0 0 0 0 0 0 0 0 0 0 0 0 0 0 0 0 0 0 0 0 0 0 0 0 0 0 0 0 0 0 0 0
3 3 3 2 1 1 0 0 0 0 0 0 0 0 0 0 0 0 0 0 0 0 0 0 0 0 0 0 0 0 0 0 0 0 0 0 0 0 0 0 0 0 0
3 3 3 2 1 0 0 0 0 0 0 0 0 0 0 0 0 0 0 0 0 0 0 0 0 0 0 0 0 0 0 0 0 0 0 0 0 0 0 0 0 0 0

GEFSMA_con_probscp_228.txt.gz
Probability
0 0 0 0 0 0 0 0 0 0 0 0 0 0 0 0 0 0 0 0 0 0 0 0 0 0 0 0 0 0 0 0 1 1 1 1 1 0 0 0 0 0 0
0 0 0 0 0 0 0 0 0 0 0 0 0 0 0 0 0 0 0 0 0 0 0 0 0 0 0 0 0 0 0 1 2 2 2 2 2 1 1 1 0 0 0
0 0 0 0 0 0 0 0 0 0 0 0 0 0 0 0 0 0 0 0 0 0 0 0 0 0 0 0 0 0 0 2 3 3 3 3 3 3 2 2 1 0 0
0 0 0 0 0 0 0 0 0 0 0 0 0 0 0 0 0 0 0 0 0 0 0 0 2 2 1 0 0 0 0 2 4 4 3 3 3 3 3 2 1 0 0
0 0 0 0 0 0 0 0 0 0 0 0 0 0 0 0 1 1 0 0 0 0 0 1 3 4 3 2 1 0 0 1 3 4 4 3 3 3 3 2 0 0 0
0 0 0 0 0 0 0 0 0 0 0 1 0 0 0 0 1 1 0 0 0 0 1 2 2 3 4 5 4 2 1 2 3 5 5 4 4 3 2 1 0 0 0
0 0 0 0 0 0 0 1 1 0 0 0 0 0 0 0 1 1 1 1 1 1 2 3 3 4 5 5 6 5 4 4 5 6 6 5 5 3 2 1 0 0 0
0 0 0 0 0 1 1 2 2 1 1 0 0 0 0 0 0 0 1 2 3 3 3 3 3 4 4 5 6 6 6 6 7 8 7 6 4 3 2 1 1 1 0
1 1 1 1 1 2 3 4 4 4 3 1 1 1 1 1 1 1 1 2 3 3 2 1 1 2 3 4 5 5 6 6 8 9 8 7 5 4 2 1 1 2 1
2 2 2 3 3 4 5 5 5 7 6 4 4 4 4 4 3 2 1 2 3 3 2 0 0 0 1 4 5 4 3 4 5 7 8 8 8 6 4 2 2 2 2
1 1 3 4 5 6 7 7 7 8 7 6 7 7 6 6 6 4 3 3 3 3 3 2 1 0 1 3 4 2 1 1 2 3 4 6 7 8 7 5 2 2 2
0 1 3 5 6 7 8 9 9 9 8 8 9 8 7 7 8 7 5 3 3 4 4 5 3 1 1 1 1 0 0 0 0 0 1 2 3 5 6 5 3 2 3
1 1 3 5 6 6 7 8 9 9 8 9 9 9 8 7 8 8 6 4 3 3 4 5 4 2 1 0 0 0 0 0 0 0 0 0 1 1 3 3 3 3 4
0 1 2 4 5 5 5 6 7 7 7 7 7 8 8 7 7 7 6 5 3 2 3 4 5 4 2 1 0 0 0 0 0 0 0 0 0 0 0 1 1 2 3
0 1 1 3 5 6 5 5 6 6 6 6 6 7 7 6 6 6 7 7 5 3 2 3 6 6 4 2 1 1 1 0 0 0 0 0 0 0 0 0 0 1 1
1 2 3 4 5 5 5 5 6 6 6 6 6 6 6 6 6 6 6 8 8 6 3 3 5 6 4 2 2 2 1 1 0 0 0 0 0 0 0 0 0 0 0
2 3 3 3 4 4 4 4 4 5 6 7 7 6 5 5 6 6 5 6 7 7 5 3 4 4 4 3 3 3 2 1 0 0 0 0 0 0 0 0 0 0 0
3 3 3 4 4 4 4 3 3 4 5 6 6 5 3 3 4 4 5 5 5 5 4 4 4 4 4 4 5 4 2 1 0 0 0 0 0 0 0 0 0 0 0
4 4 4 4 5 5 4 3 3 3 3 3 4 4 2 2 2 3 5 5 4 3 5 5 5 4 4 4 4 4 2 2 1 1 0 0 0 0 0 0 0 0 0
5 5 5 5 5 5 4 3 2 3 3 3 3 3 2 1 1 1 3 3 3 3 5 5 5 4 3 3 3 3 3 3 3 2 1 1 1 0 0 0 0 0 0
7 8 7 6 6 5 4 3 2 2 2 2 2 2 2 1 0 0 1 1 1 3 4 4 4 4 3 3 3 3 3 3 3 3 3 2 2 1 0 0 0 0 0
9 9 8 7 7 5 3 2 1 1 1 1 1 0 1 1 0 1 1 0 1 2 3 3 4 3 3 3 3 3 3 3 3 3 3 3 2 1 0 0 0 0 0
9 8 7 6 6 4 2 1 0 0 0 0 0 0 0 0 1 2 2 1 1 1 2 2 3 3 3 3 3 3 3 2 2 2 2 2 1 1 0 0 0 0 0
9 7 6 5 4 3 2 0 0 0 0 0 0 0 0 0 1 2 2 1 1 2 1 1 2 2 2 3 3 3 3 2 1 1 1 1 0 0 0 0 0 0 0
8 7 5 4 4 3 2 1 0 0 0 0 0 0 0 0 0 1 1 0 1 1 1 1 1 1 1 1 2 3 3 3 1 0 0 0 0 0 0 0 0 0 0
7 6 6 5 4 3 2 1 0 0 0 0 0 0 0 0 0 0 0 0 0 0 1 1 1 0 0 0 1 3 3 3 2 1 0 0 0 0 0 0 0 0 0

GEFSMA_con_probscp_234.txt.gz
Probability
0 1 1 1 0 0 0 0 0 1 1 1 0 0 0 0 0 1 3 5 6 6 6 6 4 2 0 0 1 3 3 3 3 3 3 1 0 0 0 0 0 0 0
0 0 0 0 0 0 0 0 1 2 2 1 0 0 0 0 0 0 2 4 6 6 6 6 6 4 2 2 2 3 3 3 3 3 3 2 1 1 0 0 0 0 0
1 0 0 0 0 0 0 0 1 1 1 1 0 0 0 1 1 1 2 3 4 5 6 6 7 6 4 3 3 4 5 4 4 4 4 3 2 1 0 0 0 0 0
2 1 0 0 0 0 0 0 0 0 0 0 0 0 0 1 2 2 3 3 4 4 4 5 6 6 5 3 3 5 7 6 5 4 4 3 2 2 1 0 0 0 0
2 1 0 0 0 0 0 0 0 0 0 0 0 0 0 1 3 3 4 4 4 4 3 4 5 5 4 3 3 5 6 6 5 5 4 4 3 3 2 1 0 0 0
2 1 0 0 1 1 0 0 0 0 0 0 0 0 0 1 2 3 3 4 4 4 3 5 7 6 5 4 4 4 6 7 8 7 6 5 4 4 3 1 0 0 0
2 3 2 2 2 2 2 2 2 1 1 0 0 0 0 0 1 2 2 3 4 3 3 6 11 12 9 7 6 6 7 10 13 12 10 7 4 3 2 1 0 0 0
3 4 5 3 3 4 4 6 6 4 2 2 2 1 1 0 1 1 1 1 3 4 4 6 12 16 15 12 9 9 10 12 14 14 13 10 6 3 2 2 1 1 1
4 5 5 5 4 4 5 7 8 6 4 4 4 4 3 3 3 2 1 1 3 5 4 5 8 11 13 13 11 11 11 10 10 11 12 11 9 7 5 4 3 3 2
4 5 6 7 7 7 7 8 8 8 6 4 5 6 6 6 6 4 2 2 3 5 5 4 4 5 7 9 10 10 9 6 6 7 8 9 9 9 8 6 5 4 4
4 5 7 10 11 11 11 10 10 9 8 5 5 5 6 7 8 5 2 1 2 3 5 5 4 3 3 4 5 7 6 4 3 4 5 6 6 7 7 6 5 4 3
4 5 7 11 13 12 12 12 11 10 8 6 4 5 6 7 7 5 2 1 1 1 2 3 3 2 1 1 2 4 4 3 3 3 3 4 4 4 5 5 4 3 2
4 5 7 10 11 10 11 12 11 9 7 5 5 6 7 7 6 4 2 2 1 0 0 1 1 0 1 2 2 1 2 2 1 1 2 3 3 3 3 3 3 2 1
5 6 7 8 9 8 8 10 9 8 7 6 5 7 9 8 6 4 3 2 2 0 0 0 0 0 1 3 2 1 1 1 0 0 1 2 3 3 3 2 2 2 1
6 7 8 9 9 7 7 7 7 9 10 9 7 8 9 8 6 5 4 3 2 1 0 1 1 1 2 3 2 1 2 1 0 0 0 1 1 2 2 1 0 0 0
10 9 10 10 9 7 6 6 7 9 11 9 8 7 8 9 7 5 4 3 2 1 0 1 2 3 3 3 3 3 3 2 1 0 0 0 0 1 1 0 0 0 0
11 11 11 11 9 7 7 7 7 7 6 7 6 6 6 7 6 4 3 2 1 1 0 1 2 3 4 3 3 2 3 3 2 1 0 0 0 0 0 0 0 0 0
13 12 13 12 10 7 7 8 7 5 3 3 4 4 3 4 4 3 2 1 1 0 0 0 1 3 3 3 2 1 1 2 3 1 0 0 0 0 0 0 0 0 0
17 15 15 15 12 8 7 7 7 5 3 1 1 1 1 2 3 2 1 1 1 1 1 1 1 3 3 3 2 1 0 1 1 0 0 0 0 0 0 0 0 0 0
18 16 16 17 14 10 8 7 7 6 4 2 1 1 1 2 2 1 0 0 1 2 2 2 2 3 3 3 3 2 1 1 1 0 0 0 0 0 0 0 0 0 0
14 13 15 16 13 10 8 7 7 7 5 3 2 2 3 2 1 0 0 0 0 1 3 3 2 3 3 3 3 3 3 2 2 1 0 0 0 0 0 0 0 0 0
15 15 15 14 11 8 6 5 6 6 6 4 3 3 3 2 1 0 0 0 0 1 2 3 3 3 3 3 3 3 3 3 3 1 0 0 0 0 0 0 0 0 0
21 18 15 12 8 5 4 4 4 5 5 5 4 3 2 1 1 1 1 1 1 1 1 2 3 3 3 3 3 3 3 3 3 2 1 0 0 0 0 0 0 0 0
24 20 15 11 7 5 4 3 3 4 4 4 3 3 3 2 2 2 2 2 2 2 1 1 2 3 3 3 3 3 3 3 3 3 2 1 0 0 0 0 0 0 0
22 20 17 12 8 6 5 3 2 3 4 3 3 3 3 3 3 3 3 3 3 3 1 0 1 2 1 1 2 3 3 3 3 3 3 2 1 0 0 0 0 0 0
20 20 18 14 9 7 6 3 2 3 4 3 3 3 3 3 2 2 3 3 3 3 2 1 0 1 0 0 1 2 3 3 3 3 3 3 2 1 0 0 0 0 0

GEFSMA_con_probscp_240.txt.gz
Probability
0 0 0 0 0 0 0 0 0 0 0 0 0 0 0 0 0 0 0 1 2 3 4 4 5 6 6 4 2 0 0 0 0 0 0 0 0 0 0 0 0 0 0
0 0 0 0 0 0 0 0 0 0 0 0 0 0 0 0 0 0 0 1 2 2 3 4 5 5 6 5 3 1 0 0 0 0 0 0 0 0 0 0 0 0 0
0 0 0 0 0 0 0 0 0 0 0 0 0 0 0 0 0 0 0 0 1 1 1 3 4 4 4 5 4 2 1 1 0 0 1 1 0 0 0 0 0 0 0
0 0 0 0 0 0 0 0 0 0 0 0 0 0 0 0 0 0 0 0 0 0 0 2 3 3 3 4 3 2 2 2 1 1 2 2 1 0 0 0 0 0 0
0 0 0 0 0 0 0 0 0 0 0 0 0 0 0 0 0 0 0 0 0 0 0 1 2 2 2 2 2 2 3 2 1 1 2 3 1 0 0 0 0 0 0
1 2 1 1 1 1 1 0 0 0 0 0 0 0 0 0 0 0 0 0 0 0 0 0 0 1 1 1 1 2 2 3 3 2 2 2 1 0 0 0 0 0 0
3 3 3 2 2 2 2 1 0 0 0 0 0 0 0 0 0 0 0 0 0 0 0 0 0 0 1 0 1 2 3 3 3 2 2 2 1 0 0 0 0 0 0
3 3 3 3 3 3 2 1 0 0 0 0 0 0 0 0 0 0 0 0 0 0 0 0 0 0 0 0 0 1 2 3 2 1 1 2 1 0 0 0 0 0 0
3 3 3 3 3 3 2 1 1 2 1 1 1 1 1 0 0 0 0 0 0 0 0 0 0 0 0 0 0 0 1 2 2 2 1 1 1 0 0 0 1 1 1
2 2 3 3 4 5 5 3 3 3 3 2 2 2 2 2 2 1 1 0 0 0 0 0 0 0 0 0 1 1 0 1 2 2 2 2 2 1 0 0 1 2 2
1 1 1 3 4 5 6 5 4 3 3 3 3 3 3 3 3 2 1 0 0 0 0 0 0 0 0 0 1 1 0 0 1 1 2 2 3 3 2 1 1 1 1
0 0 1 2 3 4 5 5 4 3 3 3 3 3 3 3 2 2 1 0 0 0 0 0 0 0 0 0 1 1 0 0 0 0 1 1 2 4 4 4 2 1 1
0 0 1 2 3 3 4 4 3 3 3 3 3 3 2 1 1 1 0 0 0 0 0 0 0 0 0 0 0 0 0 0 0 0 0 0 1 2 3 4 4 3 3
0 0 1 1 1 2 3 3 3 3 3 3 2 1 1 0 0 0 0 0 0 0 0 0 0 0 0 0 0 0 0 0 0 0 0 0 0 0 1 1 2 3 3
0 0 0 0 1 2 3 3 3 3 2 1 1 0 0 0 0 0 0 0 0 0 0 0 0 0 0 0 0 0 0 0 0 0 0 0 0 0 0 0 0 1 1
0 0 0 0 0 1 3 3 3 2 1 0 0 0 0 0 0 0 0 0 0 0 0 0 0 0 0 0 0 0 0 0 0 0 0 0 0 0 0 0 0 0 0
0 0 0 0 0 1 2 3 3 1 0 0 0 0 0 0 0 0 0 0 0 0 0 0 0 0 0 0 0 0 0 0 0 0 0 0 0 0 0 0 0 0 0
0 0 0 0 0 1 3 3 2 1 0 0 0 0 0 0 0 0 0 0 0 0 0 0 0 0 0 0 0 0 0 0 0 0 0 0 0 0 0 0 0 0 0
0 0 0 0 1 2 3 2 1 1 0 0 0 0 1 2 1 1 1 0 0 0 0 0 0 0 0 0 0 0 0 0 0 0 0 0 0 0 0 0 0 0 0
0 0 0 1 2 3 3 1 1 1 0 0 0 1 2 3 2 1 1 0 0 0 0 0 0 0 0 0 0 0 0 0 0 0 0 0 0 0 0 0 0 0 0
0 0 0 1 3 3 2 1 0 0 0 0 0 1 2 3 2 1 0 0 0 0 0 0 0 0 0 0 0 0 0 0 0 0 0 0 0 0 0 0 0 0 0
0 0 1 3 3 3 2 1 0 0 0 0 0 0 1 2 1 1 0 0 0 0 0 0 0 0 0 0 0 0 0 0 0 0 0 0 0 0 0 0 0 0 0
2 2 3 4 3 1 1 0 0 0 0 0 0 0 0 0 0 0 0 0 0 0 0 0 0 0 0 0 0 0 0 0 0 0 0 0 0 0 0 0 0 0 0
6 4 4 3 2 1 0 0 0 0 0 0 0 0 0 0 0 0 0 0 0 0 0 0 0 0 0 0 0 0 0 0 0 0 0 0 0 0 0 0 0 0 0
8 6 2 1 1 0 0 0 0 0 0 0 0 0 0 0 0 0 0 0 0 0 0 0 0 0 0 0 0 0 0 0 0 0 0 0 0 0 0 0 0 0 0
9 6 2 0 0 0 0 0 0 0 0 0 0 0 0 0 0 0 0 0 0 0 0 0 0 0 0 0 0 0 0 0 0 0 0 0 0 0 0 0 0 0 0

GEFSMA_con_probscp_246.txt.gz
Probability
0 0 0 0 0 0 0 0 0 0 0 0 0 0 0 0 0 0 0 0 1 3 3 3 2 1 0 0 0 0 0 0 0 0 0 0 0 0 0 0 0 0 0
0 0 0 0 0 0 0 0 0 0 0 0 0 0 0 0 0 0 0 0 2 3 3 3 3 1 0 0 0 0 0 0 0 0 0 0 0 0 0 0 0 0 0
0 0 0 0 0 0 0 0 0 0 0 0 0 0 0 0 0 0 0 0 1 2 2 2 2 1 0 0 0 0 0 0 0 0 0 0 0 0 0 0 0 0 0
0 0 0 0 0 0 0 0 0 0 0 0 0 0 0 0 0 0 0 0 0 1 1 1 1 1 0 0 0 1 1 1 1 0 0 0 0 0 0 0 0 0 0
0 0 0 0 0 0 0 0 0 0 0 0 0 0 0 0 0 0 0 0 0 0 0 0 0 1 0 0 0 1 2 3 2 1 0 0 0 0 0 0 0 0 0
0 0 0 0 0 0 0 0 0 0 0 0 0 0 0 0 0 0 0 0 0 0 0 0 0 0 0 0 1 2 3 3 3 2 1 1 0 0 1 0 0 0 0
0 0 0 0 0 0 0 0 0 0 0 0 0 0 0 0 0 0 0 0 0 0 0 0 0 0 0 0 1 2 3 3 4 3 2 1 0 0 0 0 0 0 0
0 0 0 1 1 0 0 0 0 0 0 0 0 0 0 0 1 1 0 0 0 0 0 0 0 0 0 0 0 1 1 2 2 1 1 1 0 0 0 0 0 0 0
0 0 0 1 1 0 0 0 0 0 0 0 0 0 0 1 2 2 1 0 0 0 0 0 0 0 0 0 0 0 0 1 1 1 0 0 0 0 0 0 0 0 0
0 0 0 1 1 0 0 0 0 0 0 0 0 0 1 1 2 2 1 0 0 0 0 0 0 0 0 0 0 0 0 0 0 1 1 1 1 0 0 0 1 1 1
0 0 0 0 0 0 0 0 0 0 0 0 1 1 2 2 2 1 0 0 0 0 0 0 0 0 0 0 0 0 0 0 0 0 1 2 2 1 0 0 1 2 2
0 0 0 0 0 0 0 1 1 0 0 1 2 2 2 1 1 0 0 0 0 0 0 0 0 0 0 0 0 0 0 0 0 0 1 2 2 1 0 0 1 1 2
0 0 0 0 0 0 0 1 2 1 0 1 1 1 1 0 0 0 0 0 0 0 0 0 0 0 0 0 0 0 0 0 0 0 0 1 1 1 0 0 0 0 1
0 0 0 0 0 0 0 1 2 2 1 0 0 0 0 0 0 0 0 0 0 0 0 0 0 0 0 0 0 0 0 0 0 0 0 0 0 0 0 0 0 0 0
0 0 0 0 0 0 0 0 1 2 1 0 0 0 0 0 0 0 0 0 0 0 0 0 0 0 0 0 0 0 0 0 0 0 0 0 0 0 0 0 0 0 0
0 0 0 0 0 0 0 0 1 1 0 0 0 0 0 0 0 0 0 0 0 0 0 0 0 0 0 0 0 0 0 0 0 0 0 0 0 0 0 0 0 0 0
0 0 0 0 0 0 0 0 0 0 0 0 0 0 0 0 0 0 0 0 0 0 0 0 0 0 0 0 0 0 0 0 0 0 0 0 0 0 0 0 0 0 0
0 0 0 0 0 0 0 0 0 1 1 1 1 0 0 0 0 0 0 0 0 0 0 0 0 0 0 0 0 0 0 0 0 0 0 0 0 0 0 0 0 0 0
0 0 0 0 0 0 0 1 1 2 2 2 2 1 0 0 0 0 0 0 0 0 0 0 0 0 0 0 0 0 0 0 0 0 0 0 0 0 0 0 0 0 0
0 0 0 0 0 0 0 1 2 2 3 2 1 1 0 0 0 0 0 0 0 0 0 0 0 0 0 0 0 0 0 0 0 0 0 0 0 0 0 0 0 0 0
0 0 0 0 0 0 0 1 1 2 2 1 0 0 0 0 0 0 0 0 0 0 0 0 0 0 0 0 0 0 0 0 0 0 0 0 0 0 0 0 0 0 0
1 1 0 0 0 0 0 0 0 1 2 1 0 0 0 0 0 0 0 0 0 0 0 0 0 0 0 0 0 0 1 1 0 0 0 0 0 0 0 0 0 0 0
5 3 1 1 0 0 0 0 0 1 1 0 0 0 0 0 0 0 0 0 0 0 0 0 0 0 0 0 0 0 1 2 1 1 0 0 0 0 0 0 0 0 0
8 6 4 3 1 0 0 0 0 0 0 0 0 0 0 0 0 0 0 0 0 0 0 0 0 0 0 0 0 0 1 1 1 0 0 0 0 0 0 0 0 0 0
9 8 7 5 3 1 0 0 0 0 0 0 0 0 0 0 0 0 0 0 0 0 0 0 0 0 0 0 0 0 0 0 0 0 0 0 0 0 0 0 0 0 0
8 8 8 7 4 1 0 0 0 0 0 0 0 0 0 0 0 0 0 0 0 0 0 0 0 0 0 0 0 0 0 0 0 0 0 0 0 0 0 0 0 0 0

GEFSMA_con_probscp_252.txt.gz
Probability
0 1 3 2 1 0 0 0 0 0 0 0 0 0 0 0 0 0 1 1 1 1 0 0 1 1 1 1 0 0 0 1 0 0 0 0 0 0 0 0 0 0 0
0 0 1 1 0 0 0 0 0 0 0 0 0 0 0 0 0 0 0 1 1 1 1 1 0 0 1 1 1 1 1 1 1 0 0 0 0 0 0 0 0 0 0
0 0 0 0 0 0 0 0 0 0 0 0 0 0 0 0 0 0 0 0 1 1 1 1 0 0 0 0 1 1 2 2 1 0 0 0 0 0 0 0 0 0 0
0 1 1 1 0 1 0 0 1 1 0 0 0 1 1 2 1 0 0 0 1 1 2 1 0 0 0 0 0 1 1 2 1 0 0 0 0 0 0 0 0 0 0
1 2 2 1 0 0 0 1 2 3 2 1 1 1 2 3 3 1 1 1 2 2 2 2 0 0 0 0 0 1 1 2 1 0 0 0 0 0 0 0 0 0 0
0 1 3 3 1 0 1 1 3 4 4 3 1 1 2 4 4 3 3 3 2 1 1 1 0 0 0 0 0 1 1 1 1 1 1 1 0 0 0 0 0 0 0
0 1 3 4 3 2 2 3 3 3 4 5 3 1 1 3 4 4 4 3 2 0 0 0 0 1 0 0 0 1 1 1 1 1 2 1 0 0 0 0 0 0 0
0 2 5 6 5 4 4 3 4 4 5 5 5 3 1 2 3 3 3 3 2 1 1 1 2 2 1 0 0 1 1 0 0 1 1 1 1 0 0 0 0 0 0
1 2 4 6 5 5 4 3 3 5 5 5 6 5 3 2 2 2 2 3 3 3 2 2 3 3 2 2 2 1 0 0 0 0 1 2 1 1 1 1 0 0 0
0 1 2 2 3 4 4 3 2 3 4 4 5 5 4 2 2 2 2 2 3 3 3 3 3 3 3 3 3 1 0 0 0 0 1 2 1 1 1 2 1 1 1
0 0 0 0 1 2 3 3 2 2 2 3 3 4 3 3 3 3 2 2 3 3 3 3 3 3 3 4 4 2 0 0 0 0 1 1 0 0 1 2 2 2 2
0 0 0 0 0 1 2 3 3 2 1 1 2 3 3 3 3 3 3 3 3 3 3 3 3 3 3 3 3 2 1 0 0 0 0 0 0 0 0 1 1 1 1
1 1 1 1 0 0 1 2 3 3 2 1 1 2 3 3 2 3 3 3 3 3 3 3 3 3 3 2 1 1 1 0 0 0 0 0 0 0 0 0 0 0 0
0 1 1 1 0 0 0 0 2 3 4 2 1 1 2 1 1 1 2 2 2 2 2 2 2 2 1 1 0 0 0 0 0 0 0 0 0 0 0 0 0 0 0
1 1 2 2 1 1 0 0 1 2 3 1 1 2 2 1 1 2 3 3 2 1 1 1 1 1 0 0 0 0 0 0 0 0 0 0 0 0 0 0 0 0 0
4 4 5 4 3 2 1 0 1 1 1 1 2 3 4 3 3 3 4 5 4 3 1 1 2 2 1 0 0 1 1 0 0 0 0 0 0 0 0 0 0 0 0
6 7 7 5 3 3 2 2 1 1 1 3 4 5 5 5 4 4 5 6 6 5 4 3 3 3 3 2 1 2 1 0 0 0 0 0 0 0 0 0 0 0 0
8 9 10 8 6 5 4 5 4 3 2 4 5 4 4 5 5 4 4 6 7 7 6 5 4 4 3 3 3 2 1 1 0 0 0 0 0 0 0 0 0 0 0
11 12 13 13 11 9 7 7 7 6 4 4 4 3 2 3 5 5 5 6 7 8 8 8 7 6 4 3 3 3 2 2 1 0 0 0 0 0 0 0 0 0 0
13 14 15 16 16 15 12 10 9 8 7 5 4 3 2 2 4 6 6 6 7 7 6 7 8 6 4 3 3 3 3 3 2 1 1 1 1 1 0 0 0 0 0
15 16 18 19 19 18 15 11 9 8 8 6 5 4 2 1 2 4 5 5 6 5 4 4 4 3 2 2 2 2 2 2 2 2 2 2 2 2 1 1 0 0 0
20 21 23 23 21 17 12 9 8 7 7 5 4 4 3 1 1 1 2 2 3 2 2 2 1 0 1 1 1 1 1 1 1 2 3 3 3 3 3 2 1 0 0
26 28 27 26 23 17 10 6 5 6 6 5 4 4 3 2 1 1 1 0 1 1 1 1 1 0 0 0 0 0 0 0 0 1 2 2 2 3 3 2 1 0 0
33 33 31 27 24 17 10 5 4 6 7 6 5 4 3 3 2 2 2 1 1 1 0 0 1 1 0 0 0 0 0 0 0 0 1 1 2 3 3 3 1 0 0
37 35 32 28 24 17 10 4 3 5 7 6 6 5 3 3 2 2 2 3 2 2 1 0 0 0 0 0 0 0 0 0 0 0 0 1 2 3 3 3 2 1 0
37 34 31 27 24 18 10 3 2 4 5 5 6 5 2 2 2 2 2 3 3 2 1 0 0 0 0 0 0 0 0 0 0 0 0 1 2 3 3 3 3 2 1

GEFSMA_con_probscp_258.txt.gz
Probability
3 2 2 2 1 0 1 0 0 0 1 0 0 0 1 2 3 3 3 4 5 6 6 4 1 0 1 2 2 2 1 1 1 0 0 0 0 0 0 0 0 0 0
4 3 2 1 1 1 1 1 0 0 1 0 0 0 1 2 3 3 3 4 5 5 5 3 1 1 2 3 2 1 1 0 0 0 0 1 1 0 0 0 0 0 0
5 5 3 2 2 3 3 2 1 1 1 1 1 2 2 3 3 3 4 4 4 3 2 1 0 1 2 3 3 2 0 0 0 0 0 1 1 0 0 0 0 0 0
5 5 4 4 4 5 4 3 2 2 2 3 3 4 4 4 4 4 4 4 4 3 1 1 0 0 1 3 4 2 0 0 0 0 0 1 1 0 0 0 0 0 0
4 4 4 5 6 6 5 3 3 3 3 3 4 5 5 4 4 4 4 4 4 3 2 2 1 1 2 4 5 4 2 1 1 0 0 0 0 0 0 0 0 0 0
4 4 4 4 6 6 4 3 3 3 3 4 4 4 4 4 5 5 4 4 4 4 3 3 3 3 4 5 6 6 4 3 2 1 0 0 0 0 0 0 0 1 1
4 4 4 4 6 6 5 4 3 3 4 5 5 5 4 5 6 6 5 5 4 4 3 4 6 7 6 4 5 6 5 4 2 1 0 0 1 0 0 0 0 0 0
6 5 5 5 5 6 6 6 6 5 5 5 4 4 5 6 7 6 5 5 5 4 3 4 7 8 7 5 4 4 5 3 2 1 0 0 0 0 0 0 0 0 0
6 5 4 4 5 5 6 7 8 8 6 5 4 3 4 5 5 5 6 7 7 5 3 3 5 7 7 6 5 4 4 3 2 1 1 1 0 0 0 0 0 0 0
5 4 4 5 6 6 6 6 8 8 7 5 5 4 3 4 4 5 7 9 8 6 4 4 5 7 7 7 6 5 4 3 2 2 2 2 1 0 0 0 0 0 0
5 5 5 6 6 6 6 6 6 7 7 6 5 4 4 5 6 6 8 9 9 8 7 5 6 7 8 7 6 6 4 3 2 1 2 2 1 0 0 0 0 0 0
7 7 6 6 5 5 5 6 6 6 6 6 5 4 4 6 7 7 8 8 9 9 8 6 6 6 6 6 6 6 4 3 2 1 1 1 1 0 0 0 0 0 0
10 10 7 5 4 4 4 4 5 5 5 4 3 3 4 6 7 7 6 7 9 9 7 5 3 3 3 4 5 5 5 3 2 1 0 0 0 0 0 0 0 0 0
11 11 9 6 4 3 3 3 4 4 3 3 2 3 5 6 7 7 7 7 8 8 6 4 2 2 2 4 4 4 4 2 1 0 0 0 0 0 0 0 0 0 0
11 12 10 7 6 4 4 4 4 4 4 3 3 4 5 6 7 9 10 8 7 8 6 4 3 3 3 3 3 3 3 1 0 0 0 0 0 0 0 0 0 0 0
13 13 11 9 8 8 7 6 7 7 7 6 5 5 5 5 7 9 9 8 7 7 6 4 4 4 4 3 2 2 2 1 0 0 0 0 0 0 0 0 0 0 0
16 15 13 12 12 12 12 10 9 10 10 9 9 8 7 5 5 6 7 8 7 7 6 5 4 4 4 3 2 3 2 1 0 0 0 0 0 0 0 0 0 0 0
18 17 16 16 15 16 16 15 12 11 12 13 14 13 10 5 4 5 7 8 7 7 7 7 5 4 4 3 3 3 3 1 0 0 0 0 0 0 0 0 0 0 0
21 20 20 20 19 19 19 18 16 14 15 18 18 14 9 5 4 6 8 8 7 7 8 8 5 4 4 3 3 3 2 1 0 0 0 0 0 0 0 0 0 0 0
26 26 25 24 22 22 21 21 20 19 19 21 18 12 7 4 4 6 7 7 6 7 7 7 5 4 3 2 2 1 1 1 0 0 0 0 0 0 0 0 0 0 0
32 33 31 28 25 23 22 23 23 22 22 22 20 13 7 4 3 4 5 5 6 6 5 5 5 3 1 1 1 0 0 0 0 0 0 0 0 1 0 0 0 0 0
38 37 34 30 26 23 21 21 22 23 25 24 22 16 9 5 4 4 4 4 4 4 4 4 4 3 1 1 0 0 0 0 0 0 0 0 0 0 0 0 0 0 0
39 37 34 31 28 23 19 17 17 21 24 25 23 18 10 6 5 5 4 3 3 2 2 3 3 3 3 2 1 0 0 0 0 0 0 0 0 0 0 0 0 0 0
41 39 36 33 29 23 16 13 14 17 21 24 23 17 11 7 7 6 5 5 4 2 1 2 2 3 3 2 1 0 0 0 0 0 0 0 0 0 0 0 0 0 0
44 41 37 34 30 22 14 9 11 15 19 21 20 15 10 8 7 5 5 6 4 3 2 1 1 1 2 2 1 0 0 0 0 0 0 0 0 1 1 0 0 0 0
45 40 36 34 30 22 13 8 9 14 17 18 18 16 10 7 5 5 6 6 4 3 3 2 1 0 1 1 0 0 0 0 0 0 0 0 1 1 1 0 0 0 0

GEFSMA_con_probscp_264.txt.gz
Probability
0 0 0 0 0 0 0 0 0 0 0 0 0 0 0 0 0 1 1 2 3 3 3 3 2 2 2 1 2 3 3 3 3 3 2 1 0 0 1 1 0 1 2
1 0 0 0 0 0 0 0 0 0 0 0 0 0 0 0 1 2 2 2 3 3 3 3 2 1 1 1 2 3 3 3 2 2 1 0 0 0 1 1 0 1 2
1 0 0 0 0 0 0 0 0 0 0 0 0 0 0 0 1 2 2 2 2 2 4 4 3 1 0 1 1 2 3 3 3 2 1 1 0 1 1 1 1 1 2
1 0 0 0 0 0 0 0 0 0 0 0 0 0 0 0 1 1 1 1 0 1 3 4 4 3 1 1 1 2 2 2 3 3 3 2 2 2 2 2 2 3 3
0 0 0 0 0 0 0 0 0 0 0 0 0 0 0 0 0 0 0 0 0 0 1 2 3 3 3 3 3 2 2 1 1 2 3 3 3 3 3 3 3 3 3
0 0 0 0 1 1 1 2 1 1 0 0 0 0 0 0 0 0 0 0 0 0 0 0 1 2 3 3 3 3 2 1 1 1 1 2 3 3 3 3 3 3 3
0 0 0 0 1 2 2 3 3 2 1 0 0 0 0 0 0 0 0 0 0 0 0 0 0 1 1 2 3 3 3 3 2 1 1 1 2 2 2 3 3 3 2
0 1 1 1 1 1 1 2 2 2 1 0 0 0 0 0 0 0 0 0 0 0 0 0 0 1 1 1 1 2 2 3 4 4 2 1 1 1 1 2 2 2 2
1 2 2 1 0 0 0 1 1 1 0 0 0 0 0 0 0 0 0 0 0 0 0 0 0 1 1 1 0 1 1 2 4 5 4 3 1 1 1 2 2 2 2
3 2 1 1 0 0 0 0 0 0 0 0 0 0 0 0 0 0 0 0 0 0 0 0 0 1 1 1 0 0 0 1 2 4 5 5 4 2 1 1 1 1 1
2 2 1 0 0 0 0 0 0 0 0 0 0 0 0 0 0 0 0 0 0 0 0 0 0 0 0 0 0 0 0 0 1 3 5 6 5 3 1 1 0 0 0
1 1 0 0 0 1 1 0 0 0 0 0 0 0 0 0 0 0 0 0 0 0 0 0 0 0 0 0 0 0 0 0 1 2 3 4 3 2 1 1 0 0 1
0 0 0 0 1 2 2 1 0 0 0 0 0 0 0 0 0 0 0 0 0 0 0 0 0 0 0 0 0 0 0 0 0 0 1 1 1 0 1 1 0 0 1
0 0 0 0 2 3 3 1 0 0 0 0 0 0 0 0 0 0 0 0 0 0 0 0 0 0 0 0 0 0 0 0 0 0 0 0 0 0 0 0 0 0 1
0 0 0 1 2 3 3 2 1 0 0 0 0 0 0 0 0 0 0 0 0 0 0 0 0 0 0 0 0 0 0 0 0 0 0 0 0 0 0 0 0 0 0
0 0 1 2 3 3 3 3 1 0 0 0 0 0 0 0 0 0 0 0 0 0 0 0 0 0 0 0 0 0 0 0 0 0 0 0 0 0 0 0 0 0 0
1 1 2 3 4 4 4 3 2 1 1 1 0 0 0 0 0 0 0 0 0 0 0 0 0 0 0 0 0 0 0 0 0 0 0 0 0 0 0 0 0 0 0
5 4 4 5 6 6 5 4 3 3 3 3 2 1 0 0 0 0 0 0 0 0 0 0 0 0 0 0 0 0 0 0 0 0 0 0 0 0 0 0 0 0 0
8 7 7 7 8 9 8 7 5 5 5 5 5 3 2 2 1 0 0 0 0 1 1 2 1 0 0 1 0 0 0 0 0 0 0 0 0 0 0 0 0 0 0
10 10 10 10 11 13 12 11 9 8 8 8 8 7 5 5 4 2 1 1 1 2 3 3 2 1 0 0 0 0 0 0 0 0 0 0 0 0 0 0 0 0 0
12 13 13 12 13 14 14 14 14 13 12 12 12 10 8 7 6 3 2 2 3 3 3 3 3 1 0 0 0 0 0 0 0 0 0 0 0 0 0 0 0 0 0
16 16 15 13 12 12 13 14 15 15 15 15 15 13 10 8 7 4 3 3 3 3 3 3 3 2 1 0 0 0 0 0 0 0 0 0 0 0 0 0 0 0 0
20 20 17 14 12 11 11 11 12 14 15 15 15 13 11 9 8 5 3 2 2 2 3 3 3 3 1 0 0 0 0 0 0 0 0 0 0 0 0 0 0 0 0
22 21 19 16 14 12 10 7 8 13 15 14 13 12 10 9 7 4 2 2 2 2 2 2 3 3 2 0 0 0 0 0 0 0 0 0 0 0 0 0 0 0 0
21 20 19 18 17 14 11 7 8 13 15 14 12 10 8 7 5 2 1 1 2 2 1 1 1 2 1 0 0 0 0 0 0 0 0 0 0 0 0 0 0 0 0
19 18 18 19 18 16 13 9 9 14 16 14 12 9 7 5 3 1 0 0 1 1 0 0 0 1 0 0 0 0 0 0 0 0 0 0 0 0 0 0 0 0 0

GEFSMA_con_probscp_270.txt.gz
Probability
0 0 0 0 0 0 0 0 0 0 0 0 0 0 0 0 0 0 0 0 0 1 2 2 2 2 1 1 1 1 0 0 0 0 0 0 0 0 0 0 0 0 0
0 0 0 0 0 0 0 0 0 0 0 0 0 0 0 0 0 0 0 0 0 1 2 2 2 1 0 0 0 0 0 0 0 0 0 0 0 0 0 0 0 0 0
0 0 0 0 0 0 0 0 0 0 0 0 0 0 0 0 0 0 0 0 0 1 2 2 2 2 1 0 0 0 0 0 0 0 0 0 0 0 0 0 0 0 0
0 0 0 0 0 0 0 0 0 0 0 0 0 0 0 0 0 0 0 0 0 0 1 2 2 2 1 0 0 0 0 0 0 0 0 0 0 0 0 0 0 0 0
0 0 0 0 0 0 0 0 0 0 0 1 0 0 0 0 0 0 0 0 0 0 0 1 1 1 0 0 1 1 0 0 0 0 0 0 0 0 0 0 0 0 0
0 0 0 0 0 0 0 0 0 0 0 0 0 0 0 0 0 0 0 0 0 0 0 0 0 0 0 0 1 1 0 0 0 0 0 0 0 0 0 0 0 0 0
0 0 0 0 0 0 0 0 0 0 0 0 0 0 0 0 0 0 0 0 0 0 0 0 0 0 0 0 1 1 0 0 0 0 0 0 0 0 0 0 0 0 0
0 0 0 0 0 0 0 0 0 0 0 0 0 0 0 0 0 0 0 0 0 0 0 0 0 0 0 0 0 0 0 0 0 0 1 1 0 0 0 0 0 0 0
0 0 0 0 0 0 0 0 0 0 0 0 0 0 0 0 0 0 0 0 0 0 0 0 1 0 0 0 0 0 1 0 0 1 2 2 1 0 0 0 0 0 0
0 0 0 0 0 0 0 0 0 0 0 0 0 0 0 0 0 1 1 1 1 0 0 0 0 0 0 0 0 0 0 0 0 1 2 3 2 1 1 2 1 0 0
0 0 0 0 0 0 0 0 0 0 0 0 0 0 0 0 0 0 1 1 1 0 0 0 0 0 0 0 0 0 0 0 0 1 2 3 3 3 3 3 3 1 0
0 0 0 0 0 0 0 0 0 0 0 0 0 0 0 0 0 0 0 1 1 0 0 0 0 0 0 0 0 0 0 0 0 0 1 2 3 3 3 3 3 2 1
0 0 0 0 0 0 0 0 0 0 0 0 0 0 0 0 0 0 0 0 0 0 0 0 0 0 0 0 0 0 0 0 0 0 0 1 2 2 3 3 3 2 2
0 0 0 0 0 0 0 1 1 1 1 1 1 0 0 0 0 0 0 0 0 0 0 0 0 0 0 0 0 0 0 0 0 0 0 0 1 1 1 2 2 1 1
0 0 0 0 0 0 1 2 2 2 2 2 2 1 0 0 0 0 0 0 0 0 0 0 0 0 0 0 0 0 0 0 0 0 0 0 0 0 0 1 1 0 0
1 1 1 1 1 1 1 3 3 3 3 3 3 2 1 0 0 0 0 0 0 0 0 0 0 0 0 0 0 0 0 0 0 0 0 0 0 0 0 0 0 0 0
3 3 2 2 2 2 3 3 3 3 3 3 3 3 2 1 0 0 0 0 0 0 0 0 0 0 0 0 0 0 0 0 0 0 0 0 0 0 0 0 0 0 0
5 4 4 4 4 4 3 3 3 3 3 3 3 3 3 1 0 0 0 0 0 0 0 0 0 0 0 0 0 0 0 0 0 0 0 0 0 0 0 0 0 0 0
6 6 6 6 6 6 5 4 3 3 3 3 4 4 4 4 3 2 2 1 0 0 0 0 0 0 0 0 0 0 0 0 0 0 0 0 0 0 0 0 0 0 0
6 6 7 8 9 9 8 7 7 6 5 5 6 7 9 9 9 9 6 4 2 1 1 1 1 1 1 0 0 0 0 0 0 0 0 0 0 0 0 0 0 0 0
5 5 6 8 9 9 9 9 11 11 10 9 11 13 14 14 14 13 10 7 5 4 3 2 2 2 2 1 0 0 0 0 0 0 0 0 0 0 0 0 0 0 0
6 6 6 8 9 8 7 7 9 12 12 12 13 15 15 15 14 11 9 7 6 6 5 4 4 4 3 2 1 0 0 0 0 0 0 0 0 0 0 0 0 0 0
7 7 8 9 9 7 5 5 7 9 11 11 11 12 12 12 11 9 7 5 5 5 6 6 6 5 4 3 2 1 0 0 0 0 0 0 0 0 0 0 0 0 0
8 9 9 9 9 7 5 4 5 7 8 9 9 10 10 10 8 7 6 5 4 4 4 5 5 5 3 2 2 1 0 0 0 0 0 0 0 0 0 0 0 0 0
9 9 8 7 8 8 5 2 3 5 7 8 9 9 9 8 6 4 4 4 3 3 3 3 3 3 1 1 1 1 1 0 0 0 0 0 0 0 0 0 0 0 0
10 8 6 5 7 8 5 1 1 4 7 9 9 8 8 7 5 4 3 3 3 3 3 2 1 1 0 0 0 1 1 1 0 0 0 0 0 0 0 0 0 0 0

GEFSMA_con_probscp_276.txt.gz
Probability
0 0 0 0 0 0 0 0 1 0 0 0 1 2 3 3 3 4 4 2 1 0 0 0 1 1 1 1 1 0 0 0 0 0 0 0 0 0 0 0 0 0 0
0 0 0 0 0 0 1 1 1 0 0 0 1 2 2 2 2 3 2 1 0 0 0 0 1 2 2 2 2 1 0 0 0 0 0 0 0 0 0 0 0 0 0
0 0 0 0 0 1 1 1 1 0 0 0 0 1 1 1 1 1 1 0 0 0 0 0 1 1 1 1 2 1 0 0 0 0 0 0 0 0 0 0 0 1 1
1 1 1 1 2 2 1 1 0 0 0 0 0 0 0 0 0 0 0 0 0 0 0 0 0 0 0 0 1 1 0 0 0 0 0 0 0 0 0 0 0 1 2
0 1 1 2 3 2 1 0 0 0 0 0 0 0 1 0 0 0 0 0 0 0 0 0 0 0 0 0 0 0 0 0 0 0 0 0 0 0 0 0 0 1 2
0 0 2 3 3 1 0 0 0 0 0 0 0 0 0 0 0 0 0 0 0 1 1 1 1 1 1 0 0 0 0 0 0 0 0 0 0 0 0 0 0 0 1
0 0 1 2 2 1 0 0 0 0 0 0 0 0 1 1 1 0 0 0 0 1 2 2 2 2 1 1 0 0 0 0 0 0 0 0 0 0 0 0 0 0 0
0 0 0 1 2 2 0 0 0 0 0 0 0 0 2 2 2 1 1 0 0 1 2 2 1 1 2 2 1 1 1 1 0 0 0 0 0 0 0 0 0 0 0
0 0 0 1 1 1 0 0 0 0 0 0 0 0 1 1 1 2 2 1 1 2 2 1 0 0 2 2 2 2 2 1 0 0 0 0 0 0 0 0 1 0 0
0 0 0 0 0 0 0 0 0 0 0 0 0 0 0 0 0 1 2 3 3 3 2 1 0 0 1 2 2 1 1 1 0 0 1 0 0 0 0 0 0 0 0
0 0 0 0 0 0 0 0 0 0 0 0 0 0 0 1 0 1 2 3 3 3 3 2 0 0 0 1 1 0 0 0 0 0 0 0 0 0 1 0 0 0 0
1 1 1 1 0 0 0 0 0 0 0 0 0 0 0 0 0 0 1 2 3 3 3 2 0 0 0 0 0 0 0 0 0 0 0 0 0 0 0 0 0 0 0
2 2 2 2 1 0 0 0 0 0 0 0 0 0 0 0 0 0 1 2 3 3 3 2 1 0 0 0 0 1 1 1 0 0 0 0 0 0 0 0 0 0 0
3 3 3 3 2 1 1 1 1 1 1 1 1 1 2 2 2 3 3 3 3 3 4 4 4 2 2 1 1 1 2 1 0 0 0 0 0 0 0 0 0 0 0
4 3 3 3 3 3 2 2 2 3 3 4 4 5 6 7 8 9 8 7 6 6 6 8 9 7 5 3 3 3 3 2 0 0 0 0 0 0 0 0 0 0 0
5 4 3 3 3 3 3 4 4 5 6 8 8 10 12 13 14 14 14 13 11 10 10 11 12 11 7 5 4 4 3 2 1 0 0 0 0 0 0 0 0 0 0
5 5 4 3 3 4 5 6 6 8 9 11 12 14 16 17 17 17 17 16 16 15 13 12 13 12 9 6 5 5 4 3 2 1 0 0 0 0 0 0 0 0 0
5 4 4 4 4 5 7 9 10 11 12 13 15 16 17 19 19 19 18 17 17 18 16 15 14 13 10 8 6 5 5 4 3 1 0 0 0 0 0 0 0 0 0
7 6 6 6 6 8 10 12 13 13 14 15 16 16 17 19 19 19 19 19 19 19 18 17 15 13 11 8 6 5 5 5 4 2 1 0 0 0 0 0 0 0 0
13 11 9 10 11 11 13 15 16 15 15 16 17 17 18 19 19 19 19 19 19 19 18 17 15 13 11 8 6 5 5 6 6 4 2 1 1 1 0 0 0 0 0
17 15 12 12 14 15 15 15 16 16 17 19 20 18 18 18 16 16 16 16 16 17 17 16 14 13 12 10 7 6 6 7 7 6 4 3 3 2 1 0 0 0 0
18 16 14 13 14 15 14 13 14 16 19 21 21 19 17 16 14 13 11 11 12 14 15 15 14 13 13 11 8 7 7 7 7 6 6 5 4 4 3 1 0 0 0
19 18 16 15 15 15 13 10 11 14 17 19 19 17 15 14 14 13 11 9 10 11 12 13 13 13 12 10 9 8 8 7 7 7 7 6 5 4 3 1 0 0 0
24 22 21 20 18 15 11 7 8 12 15 17 19 17 16 15 13 13 13 13 13 11 9 9 11 10 8 7 8 9 9 8 8 8 7 6 6 5 4 2 1 0 0
30 27 24 24 21 17 11 5 6 13 17 20 21 19 18 15 12 11 14 16 17 14 9 6 7 7 5 5 5 7 8 7 7 7 8 7 6 6 5 4 1 0 0
33 29 26 25 24 21 12 4 5 15 22 23 22 20 19 16 11 9 13 17 18 16 11 6 5 4 4 3 4 5 7 6 5 6 7 7 5 6 6 5 2 1 0

GEFSMA_con_probscp_282.txt.gz
Probability
0 0 0 0 0 0 1 3 2 1 2 2 2 2 3 4 4 4 4 6 10 12 11 7 4 3 4 5 5 4 3 3 3 3 2 1 0 0 0 0 0 0 0
0 0 0 0 0 1 2 3 2 2 2 2 2 2 3 4 4 3 3 5 9 11 11 8 4 2 2 3 3 3 3 4 4 4 3 1 1 0 0 0 0 0 1
0 0 0 1 1 2 4 4 3 2 2 2 3 3 4 4 4 4 3 5 7 9 9 8 4 2 1 2 3 3 4 5 6 6 4 3 2 1 1 1 1 1 2
0 0 1 2 3 4 5 4 3 3 3 3 4 5 6 6 5 4 4 5 6 7 7 6 4 4 3 4 5 5 5 6 7 7 6 4 3 3 2 2 2 2 2
1 2 2 3 4 4 4 3 3 4 4 3 4 5 6 6 6 4 4 5 7 7 6 5 5 5 5 5 5 6 6 6 6 6 6 5 4 3 3 3 3 3 3
2 3 3 5 5 3 2 2 3 4 4 3 4 6 7 6 6 5 5 6 7 7 6 6 6 5 4 4 4 4 4 4 4 4 5 5 4 4 4 4 3 3 3
2 2 4 5 4 2 1 1 2 4 4 3 4 6 7 8 7 7 6 6 6 5 5 6 6 5 4 3 3 3 3 3 3 3 4 4 5 4 4 4 3 3 3
2 2 3 3 2 0 0 0 1 2 3 3 4 5 7 8 9 9 8 6 4 4 4 5 7 6 5 4 3 3 3 4 4 3 3 3 3 3 2 2 2 2 2
3 3 2 2 1 0 0 0 0 2 3 3 3 4 5 6 8 10 10 8 6 4 4 5 6 7 6 5 5 4 4 5 5 5 4 2 1 1 1 0 1 1 1
5 4 3 3 1 0 0 0 0 2 3 3 3 3 3 4 7 9 10 10 8 7 7 7 7 6 6 6 6 5 4 4 5 6 6 4 2 1 1 0 0 0 0
6 6 5 4 3 1 0 1 1 1 2 1 1 2 2 4 7 7 7 8 9 10 11 11 10 9 7 6 6 6 5 4 5 6 6 5 3 2 2 1 1 1 0
9 8 7 6 5 3 2 2 2 1 1 1 1 1 1 3 7 7 6 6 8 10 12 12 12 12 10 7 5 3 4 4 4 3 3 4 3 3 3 3 2 1 1
11 10 9 8 6 4 3 3 3 3 2 3 3 2 2 5 8 9 9 9 10 11 12 13 13 14 13 10 5 2 2 2 2 1 1 2 2 3 4 3 3 2 1
11 13 12 11 8 5 4 4 4 4 4 6 7 7 7 9 11 13 15 15 15 15 15 15 14 13 13 10 6 3 2 2 1 0 0 0 1 2 2 2 2 2 2
10 14 14 12 10 8 6 5 4 4 6 9 11 11 12 12 13 15 18 20 19 18 18 17 15 13 12 10 6 4 4 2 1 0 0 0 0 1 1 0 1 1 1
12 15 15 12 11 9 7 6 4 5 8 11 13 12 13 14 14 15 19 21 21 21 20 19 18 16 14 10 7 6 4 2 0 0 0 0 0 0 0 0 0 0 0
17 17 16 13 11 9 8 8 7 7 10 13 13 13 14 16 18 19 20 21 22 22 21 20 21 21 18 13 9 7 5 2 1 0 0 0 0 0 0 0 0 0 0
21 20 17 16 13 11 10 11 11 11 12 13 13 14 15 19 23 24 23 21 21 21 20 20 22 23 19 14 10 7 5 4 2 1 0 0 0 0 0 0 0 0 0
22 20 19 17 15 13 13 15 14 14 14 14 14 15 17 20 25 26 24 22 21 20 20 20 21 21 18 14 11 8 6 6 4 2 1 0 0 0 0 0 0 0 0
23 21 20 20 18 16 16 17 18 17 16 16 16 16 17 20 23 24 21 20 21 22 21 21 21 21 19 16 13 9 7 7 6 3 2 0 0 0 0 0 0 0 0
23 23 23 23 22 19 17 17 20 21 20 19 19 19 18 19 20 18 16 15 18 21 22 22 22 23 22 19 16 12 9 7 5 5 4 2 1 0 0 0 0 0 0
25 27 27 25 24 20 16 16 21 25 26 25 24 23 21 18 16 14 13 12 12 14 17 18 20 21 21 19 18 16 11 7 6 6 5 4 3 2 1 1 0 0 0
30 31 31 30 27 21 14 13 17 24 28 27 26 25 23 20 17 15 15 12 10 9 10 13 15 16 17 17 18 17 13 9 8 8 6 6 6 4 3 2 1 0 0
34 33 33 34 32 25 16 10 13 20 25 25 24 24 25 22 18 17 18 16 13 10 7 8 11 13 13 13 13 12 11 9 9 9 9 8 7 6 5 3 1 0 0
36 34 33 35 35 30 19 10 10 18 23 23 22 22 22 21 17 14 16 20 20 15 9 7 8 9 8 8 7 7 7 8 8 10 12 12 10 8 6 4 2 0 0
36 33 32 35 37 32 21 11 11 19 24 24 22 20 19 18 14 11 14 22 25 19 11 7 5 5 6 6 5 4 5 6 7 10 14 14 13 9 6 4 2 1 0

GEFSMA_con_probscp_288.txt.gz
Probability
0 0 0 0 0 0 0 0 0 0 0 0 0 0 1 0 0 1 2 3 3 3 4 5 5 4 4 4 3 1 0 0 0 0 0 0 0 0 0 0 0 0 0
0 0 0 0 0 0 0 0 0 0 0 0 0 0 1 0 0 1 2 2 2 3 4 5 5 6 5 5 3 2 1 1 1 1 1 0 0 0 0 0 0 0 0
0 0 0 0 0 0 0 0 0 0 0 0 0 0 0 0 1 1 1 1 2 3 4 6 7 7 6 4 3 3 3 2 2 2 2 1 1 1 0 0 0 0 0
0 0 0 0 0 0 0 1 1 1 2 1 1 0 0 1 2 2 1 1 1 2 3 5 7 7 5 3 2 3 3 3 2 2 2 2 2 1 0 0 0 0 0
0 0 0 0 0 0 0 1 2 2 3 3 2 1 1 1 3 3 3 1 0 0 1 2 3 4 4 3 3 3 3 3 3 3 3 2 1 1 0 0 0 0 0
0 0 0 0 0 0 0 1 1 2 2 2 2 2 2 2 3 3 3 1 0 0 0 0 1 1 2 3 3 3 3 3 3 3 3 2 1 1 0 0 0 0 0
0 0 0 0 0 0 0 0 0 1 1 1 1 1 1 2 3 3 3 2 1 1 0 0 0 0 1 2 3 3 3 3 3 3 2 1 1 0 0 0 0 0 0
0 0 0 0 0 0 0 0 0 0 0 0 0 0 0 1 1 2 3 3 3 2 1 1 0 0 0 1 1 2 3 3 3 2 1 1 1 0 0 0 0 0 0
0 0 0 0 0 0 0 0 0 0 0 0 0 0 0 0 0 1 1 2 3 3 3 2 1 1 0 0 0 1 3 3 3 2 2 3 2 0 0 0 0 0 0
1 0 0 0 0 0 0 0 0 0 0 0 0 0 0 0 0 0 0 1 2 3 3 2 1 0 0 0 0 1 2 2 2 2 3 4 3 1 0 0 0 0 0
1 0 0 0 0 0 0 0 0 0 0 0 0 0 0 0 0 0 0 0 2 3 3 2 1 0 0 1 1 1 1 1 1 1 2 3 3 2 1 1 1 0 0
1 0 1 1 1 1 1 1 1 0 0 0 0 0 0 0 0 0 0 0 2 3 3 3 2 1 1 1 2 2 1 0 0 0 1 1 2 2 2 2 2 1 0
1 1 2 3 3 2 2 2 2 1 1 1 0 0 0 0 0 0 0 0 1 3 3 3 3 2 2 1 1 1 1 0 0 0 0 0 1 1 2 2 2 1 0
2 2 3 3 3 3 3 4 3 3 2 2 1 1 1 1 0 1 1 1 2 3 3 3 3 2 1 0 0 0 0 0 0 0 0 0 0 0 1 1 1 0 0
2 2 2 3 3 3 4 4 4 3 3 3 3 2 2 2 2 3 4 4 5 5 5 4 3 2 1 0 0 0 0 0 0 0 0 0 0 0 0 0 0 0 0
1 1 2 2 3 3 3 4 3 3 3 3 3 4 5 5 6 6 7 7 8 8 7 5 3 1 0 0 0 0 0 0 0 0 0 0 0 0 0 0 0 0 0
2 1 1 1 1 2 2 2 3 3 4 4 5 6 8 8 9 10 10 10 10 10 9 5 3 1 0 0 0 0 0 0 0 0 0 0 0 0 0 0 0 0 0
2 1 0 0 0 1 1 1 2 3 5 5 6 8 9 10 10 12 12 12 12 11 10 7 4 1 0 0 0 0 0 0 0 0 0 0 0 0 0 0 0 0 0
2 1 1 1 1 1 1 1 2 3 5 6 7 9 10 10 11 12 13 13 13 12 11 9 6 3 1 0 0 0 0 0 0 0 0 0 0 0 0 0 0 0 0
4 4 4 4 5 4 3 3 4 4 5 6 7 9 10 11 12 13 13 12 11 11 11 10 8 5 2 1 1 0 0 0 0 0 1 1 1 0 0 0 0 0 0
9 10 10 9 8 7 5 5 6 7 8 8 9 10 11 11 11 11 10 10 9 9 9 8 7 5 4 3 2 1 0 0 0 0 1 2 2 1 0 0 0 0 0
14 15 15 13 10 7 5 5 7 10 10 11 12 12 12 12 10 9 7 7 8 8 8 7 5 4 4 4 3 2 1 0 0 0 1 2 2 1 0 0 0 0 0
18 18 18 15 11 8 6 5 6 9 11 12 13 13 13 12 10 8 6 5 7 9 8 6 5 4 4 3 3 3 2 1 0 0 1 1 1 1 0 0 0 0 0
21 20 20 18 15 12 8 6 6 7 10 12 13 13 13 11 10 7 5 5 7 8 8 7 6 5 4 3 3 3 3 2 0 0 0 0 0 0 0 0 0 0 0
23 22 22 22 20 17 12 8 6 8 10 11 12 13 13 12 9 6 4 6 6 6 6 6 6 6 5 3 3 3 3 2 1 0 0 1 1 1 0 0 0 0 0
24 23 23 24 23 19 14 9 7 8 9 11 12 12 14 14 11 5 4 6 6 5 4 6 6 5 5 2 2 3 3 2 2 1 0 1 2 2 1 0 0 0 0

GEFSMA_con_probscp_294.txt.gz
Probability
0 0 0 0 0 0 0 0 0 0 0 0 0 0 0 0 0 0 1 1 1 1 3 5 5 4 3 2 2 3 4 3 1 1 1 1 1 1 0 0 0 0 1
0 0 0 0 0 0 0 0 0 0 0 0 0 0 0 0 0 0 0 1 1 2 3 4 4 3 2 1 1 1 2 2 2 2 1 1 0 0 0 0 0 0 1
0 0 0 1 1 0 0 0 0 0 0 0 0 0 0 0 0 0 0 1 2 2 2 2 2 2 1 0 0 0 0 1 1 1 1 1 0 0 0 0 0 0 1
0 0 0 1 1 0 0 0 0 0 0 0 0 0 0 0 0 0 0 1 1 1 1 0 1 2 2 1 0 0 0 1 1 1 2 2 1 1 0 0 0 0 0
0 0 0 1 1 0 0 0 1 0 0 0 0 0 0 0 0 0 0 0 0 0 0 0 1 2 3 1 1 1 1 2 2 3 3 3 3 2 1 0 0 0 0
0 0 0 0 0 0 0 0 0 0 0 0 0 0 0 0 0 0 0 1 0 0 0 0 1 2 2 2 2 2 2 3 3 3 3 4 4 2 1 0 0 0 0
0 0 0 0 0 0 0 0 0 0 0 0 0 0 0 0 0 0 0 0 0 0 0 0 0 1 1 1 1 2 2 3 3 3 3 3 3 2 1 1 0 0 0
0 0 0 0 0 0 0 0 0 0 0 0 0 0 0 0 0 0 0 0 0 0 0 0 0 0 0 0 0 1 1 3 3 3 3 3 3 2 1 1 1 0 0
0 0 0 0 0 0 0 0 0 0 0 0 0 0 0 0 0 0 0 0 0 0 1 1 1 0 0 0 0 0 1 2 3 3 3 3 3 3 3 2 2 1 0
0 0 0 0 0 0 0 0 0 0 0 0 0 0 0 0 0 0 0 0 0 0 1 2 1 1 1 1 0 0 0 1 2 2 2 2 2 2 2 2 2 1 0
0 0 0 0 0 0 0 0 0 0 0 0 0 0 0 0 0 0 0 0 0 0 1 3 2 1 1 1 0 0 0 0 1 1 1 1 1 1 1 1 1 0 0
0 0 0 0 0 0 1 1 1 1 1 1 1 1 1 0 0 0 0 0 0 0 1 3 3 1 1 1 0 0 0 0 0 0 0 0 0 0 0 0 0 0 0
0 0 0 0 0 0 1 2 2 2 2 2 2 2 2 1 1 1 1 1 1 1 3 4 3 1 0 0 0 0 0 0 0 0 0 0 0 0 0 0 0 0 0
0 0 0 0 0 0 1 1 2 3 3 3 3 3 3 3 4 4 4 4 4 4 5 6 4 1 0 0 0 0 0 0 0 0 0 0 0 0 0 0 0 0 0
0 0 0 0 0 0 0 0 1 3 3 3 3 3 3 4 5 6 8 9 9 8 8 8 6 3 1 0 0 0 0 0 0 0 0 0 0 0 0 0 0 0 0
0 0 0 0 0 0 0 0 1 2 2 3 3 3 3 4 5 8 11 13 12 12 11 9 7 5 2 1 0 0 0 0 0 0 0 0 0 0 0 0 0 0 0
0 0 0 0 0 0 0 0 0 1 1 1 2 2 3 4 6 10 13 14 13 12 12 10 8 5 3 1 0 0 0 0 0 0 0 0 0 0 0 0 0 0 0
1 0 0 0 0 0 0 0 0 0 0 0 1 2 3 5 8 11 13 14 13 12 11 10 9 7 4 1 0 0 0 0 0 0 0 0 0 0 0 0 0 0 0
1 1 1 1 0 0 0 0 0 1 1 2 3 3 5 8 11 12 12 12 12 11 10 10 10 8 5 2 1 0 0 0 0 0 0 0 0 0 0 0 0 0 0
3 3 3 3 2 1 1 1 1 3 4 5 6 6 7 12 14 13 12 12 12 11 10 9 9 7 4 3 2 1 1 0 0 0 0 0 0 0 0 0 0 0 0
8 7 6 6 5 3 3 2 3 6 9 9 9 8 9 13 15 13 12 12 12 11 11 9 7 5 4 3 3 3 2 1 0 0 0 0 0 0 0 0 0 0 0
12 11 10 9 8 7 4 2 4 9 13 13 12 12 12 14 14 13 11 11 11 11 11 10 7 5 4 3 3 3 3 2 1 1 0 0 0 0 0 0 0 0 0
13 13 13 12 11 9 5 2 2 8 14 17 17 17 16 15 14 14 12 11 11 10 10 9 7 5 4 3 3 3 3 3 3 2 1 0 0 0 0 0 0 0 0
15 15 15 15 14 12 7 2 2 7 14 19 20 20 18 15 14 13 12 12 12 10 7 6 5 4 3 2 2 2 3 3 3 2 1 0 0 0 0 0 0 0 0
15 15 16 16 16 14 9 3 3 8 14 18 20 20 18 16 13 10 9 10 10 8 5 3 3 3 3 2 1 1 2 2 2 2 1 0 0 0 0 0 0 0 0
13 13 14 15 15 14 10 4 4 11 15 17 18 18 17 16 13 9 8 9 9 7 4 2 2 3 3 2 1 2 2 1 1 2 2 1 0 1 1 1 0 0 0

GEFSMA_con_probscp_300.txt.gz
Probability
0 0 0 0 0 0 0 0 0 0 0 0 0 0 0 0 0 0 1 2 2 2 2 2 1 1 2 2 1 0 0 0 0 0 0 2 4 5 4 2 1 0 0
0 0 0 0 0 0 0 0 0 0 1 1 1 1 1 1 1 1 2 2 1 1 1 1 1 0 1 1 0 0 0 1 1 1 1 2 4 4 3 2 1 0 0
0 0 0 0 0 0 0 0 0 1 2 2 2 2 2 2 2 3 3 2 1 1 2 2 2 1 0 0 1 1 1 2 3 3 3 3 3 3 2 1 0 0 0
1 1 1 0 0 0 0 0 1 2 3 3 3 2 3 3 3 3 3 3 3 3 3 3 2 1 0 1 2 3 3 3 4 4 4 3 3 3 3 2 2 1 0
1 1 1 1 0 0 0 0 1 2 2 2 2 2 2 3 3 3 3 3 3 3 3 3 2 1 1 2 3 4 4 4 4 4 4 3 3 3 3 3 3 2 1
1 0 0 0 0 0 0 0 0 1 1 0 1 1 1 2 2 3 3 3 3 3 3 3 2 2 2 3 3 3 4 5 5 4 4 3 3 3 3 3 3 2 1
1 0 0 0 0 0 0 0 0 0 0 0 0 0 0 1 1 1 2 3 3 3 3 3 3 3 3 3 3 3 3 3 4 3 3 3 3 3 3 3 3 1 0
0 0 0 0 0 0 0 0 0 0 0 0 0 0 0 1 0 0 1 2 2 3 3 3 3 3 3 3 2 1 2 2 2 2 1 1 2 3 3 3 2 1 0
1 1 1 1 2 1 1 0 0 0 0 0 1 1 0 0 0 1 1 1 1 1 2 3 3 3 3 3 2 1 0 1 2 1 0 0 1 1 2 2 2 1 0
2 2 2 3 3 3 2 1 1 2 1 1 2 2 1 1 1 2 2 2 1 0 1 3 3 3 3 3 3 1 0 0 1 1 0 0 0 0 1 1 1 0 0
3 3 3 3 3 3 3 3 3 3 3 3 3 3 3 2 2 2 2 2 1 1 2 3 3 3 3 4 4 2 0 0 0 0 0 0 0 0 0 0 0 0 0
3 2 1 2 2 2 3 3 4 4 5 5 4 3 3 3 3 2 2 3 3 4 5 5 5 4 3 4 4 3 1 0 0 0 0 0 0 0 0 0 0 0 0
3 2 1 1 1 1 1 2 3 4 5 6 5 4 4 4 4 4 3 4 5 7 8 8 7 6 5 6 6 4 1 0 0 0 0 0 0 0 0 0 0 1 1
3 2 1 0 0 0 0 1 2 3 4 5 6 6 5 5 5 6 6 6 7 9 10 10 10 9 8 9 8 5 2 1 0 0 0 0 0 0 0 0 0 0 0
4 2 1 1 1 1 1 2 3 3 3 4 4 5 6 6 7 8 8 9 10 10 11 12 12 12 11 10 9 8 6 2 0 0 0 0 0 0 0 0 0 0 0
6 6 5 5 5 4 3 4 5 5 4 3 3 5 6 6 7 8 10 12 14 14 14 14 15 15 14 12 10 10 9 5 1 0 0 0 0 0 0 0 0 0 0
9 10 10 10 8 7 7 8 7 6 6 5 4 6 7 8 8 9 10 14 17 18 18 16 16 16 16 15 13 13 11 6 2 1 0 0 0 0 0 0 0 0 0
11 12 13 12 10 9 11 12 10 9 9 8 7 8 9 9 10 11 13 15 17 20 20 19 18 17 17 17 17 15 12 8 4 1 0 0 0 0 0 0 0 0 0
15 15 15 15 15 15 15 15 16 15 13 12 12 12 11 11 13 16 17 17 18 19 20 21 20 18 17 18 18 17 14 12 7 3 1 0 0 0 0 0 0 0 0
20 20 20 20 20 18 16 17 19 20 19 18 17 16 14 15 17 19 20 20 19 19 20 21 20 19 18 19 20 19 16 15 12 7 4 2 1 0 0 0 0 0 0
21 22 22 22 21 17 13 15 20 23 24 25 24 22 20 21 20 19 18 18 19 20 21 21 20 20 20 21 22 20 17 17 16 13 10 7 4 2 1 0 0 0 0
20 20 21 20 18 15 11 11 16 23 28 30 30 27 26 25 22 18 14 12 15 18 20 21 22 22 23 22 21 20 18 18 18 17 15 13 9 6 4 2 0 0 0
19 19 19 18 17 14 10 7 11 19 27 31 32 30 29 27 25 22 17 13 14 16 16 19 22 23 23 22 21 20 19 19 19 19 17 16 14 11 8 4 1 0 0
20 20 19 18 17 14 9 4 7 17 26 31 33 32 31 29 27 25 23 21 21 19 15 13 15 17 17 17 18 19 19 18 19 19 17 16 15 13 10 8 4 1 0
22 22 21 21 21 19 11 4 6 18 27 32 34 33 30 29 27 24 25 28 28 24 16 10 8 8 8 9 11 14 17 17 17 18 18 16 14 12 11 10 7 4 1
25 23 23 24 24 23 16 6 7 18 28 32 35 33 27 27 25 22 26 30 29 26 18 10 5 4 4 3 5 10 14 15 16 17 19 17 13 11 9 8 9 7 4

GEFSMA_con_probscp_306.txt.gz
Probability
0 0 1 2 1 2 3 4 4 4 4 4 4 4 5 5 4 2 2 6 9 8 5 4 3 3 3 3 3 4 5 5 4 4 4 2 1 0 0 0 0 0 1
0 0 1 2 3 4 5 6 5 4 4 4 4 3 4 5 4 3 3 6 8 9 7 4 3 3 3 3 3 4 6 6 6 6 5 3 2 1 1 1 1 1 1
0 0 1 3 4 5 6 6 5 4 3 4 3 3 4 5 5 4 4 5 6 7 7 6 5 4 4 4 4 5 7 8 9 9 8 6 4 3 2 2 2 1 1
1 1 2 2 2 3 4 4 4 4 4 4 4 4 5 7 7 6 5 4 5 5 6 7 7 6 6 6 6 6 6 7 9 10 9 8 6 4 3 3 3 3 2
2 2 2 2 1 1 2 3 4 5 5 5 5 5 6 7 8 8 6 5 5 6 6 7 8 9 9 9 8 7 6 5 7 9 9 9 7 4 3 3 3 3 3
2 2 2 2 1 1 2 3 4 5 5 5 4 5 7 8 8 8 7 6 6 7 7 7 8 9 10 10 8 6 4 3 4 6 8 8 6 4 2 2 3 3 3
2 1 1 1 1 1 2 4 5 5 4 4 4 5 7 8 8 8 7 7 8 8 9 9 10 10 9 8 7 5 4 2 2 3 5 6 6 4 2 1 2 2 2
3 3 2 2 2 2 4 5 6 5 3 3 4 5 7 7 7 7 8 10 10 11 10 12 14 15 11 7 6 5 5 3 1 1 2 4 4 3 1 1 1 1 1
7 7 7 6 5 4 4 6 6 5 4 4 4 4 5 6 6 7 9 13 14 13 12 13 18 20 17 12 8 6 5 4 1 1 2 4 3 1 0 0 0 0 0
13 11 10 10 9 6 5 6 7 7 6 5 5 5 5 6 8 8 9 12 14 13 12 13 18 23 24 20 14 9 7 3 1 1 3 4 4 2 1 1 0 0 0
16 15 14 13 12 9 7 7 8 8 7 6 5 5 5 7 8 7 8 10 12 13 13 15 19 25 27 25 19 14 10 5 1 1 2 2 3 3 2 2 1 0 0
18 18 16 14 13 13 11 10 9 9 8 7 6 5 5 5 6 6 7 9 11 12 14 16 19 23 25 24 20 16 12 5 1 0 0 0 1 2 3 3 2 1 0
18 19 18 16 15 14 13 12 11 11 11 11 10 8 7 6 6 6 8 10 11 12 13 15 17 17 19 20 18 15 11 4 0 0 0 0 0 1 3 3 2 1 0
16 18 19 18 17 15 14 12 12 12 13 14 14 13 12 11 10 10 10 11 11 11 12 12 13 13 15 17 15 13 10 5 1 0 0 0 0 1 3 3 3 1 0
15 16 17 18 18 16 14 13 12 12 15 17 17 16 15 14 14 13 13 13 13 12 11 11 13 14 15 14 12 13 13 8 3 1 0 0 0 0 1 2 3 2 1
14 14 16 18 18 17 16 16 15 15 18 20 19 17 17 16 15 15 14 14 14 14 14 14 15 16 16 13 11 13 14 10 5 2 1 0 0 0 0 1 2 2 2
16 16 17 18 19 19 20 22 19 16 17 19 19 19 18 16 16 17 17 16 16 17 19 18 18 19 19 17 14 14 13 11 8 5 2 1 0 0 0 0 1 1 2
19 19 21 22 22 22 24 25 22 17 17 20 22 22 22 20 20 21 20 18 18 20 22 21 21 22 22 21 19 16 14 14 12 6 3 1 0 0 0 0 0 0 1
25 26 27 27 25 24 24 26 25 21 20 23 25 26 25 25 25 26 24 22 21 22 24 25 23 24 25 24 21 18 17 18 15 9 4 2 1 0 0 0 0 0 0
35 34 33 31 28 24 23 24 26 26 25 27 28 28 27 25 26 26 26 25 24 23 25 27 25 24 26 26 23 20 19 20 19 15 10 6 3 1 0 0 0 0 0
39 38 36 33 29 24 21 22 25 28 30 31 32 30 28 25 23 22 23 23 24 24 24 25 24 24 26 27 24 21 20 20 21 19 15 10 5 2 1 0 0 0 0
39 39 38 34 29 23 18 16 20 26 30 33 34 33 30 26 23 21 19 19 20 21 23 23 23 24 25 25 24 21 20 19 20 20 18 14 10 8 4 2 0 0 0
39 39 37 34 30 25 16 10 11 19 26 31 34 34 32 29 27 25 22 19 19 18 18 21 23 25 26 24 24 23 21 20 21 22 20 17 16 13 9 4 1 0 0
41 39 36 34 32 27 19 9 7 14 24 28 32 34 35 33 30 28 27 25 24 20 16 15 19 22 22 21 22 23 22 20 20 21 22 21 20 17 13 8 3 0 0
42 40 36 35 34 30 22 11 8 16 25 28 30 32 34 34 30 27 28 29 29 25 18 13 13 13 12 12 14 19 20 18 16 17 21 22 22 19 15 12 7 3 1
44 41 37 35 35 32 23 10 8 19 27 29 29 30 30 30 28 26 27 29 29 27 21 15 10 7 6 6 7 13 17 16 14 14 17 20 20 19 17 15 11 6 2

GEFSMA_con_probscp_312.txt.gz
Probability
0 0 0 0 0 0 0 1 1 1 0 1 1 1 0 0 0 0 1 3 6 6 6 6 5 4 4 4 4 2 1 2 3 4 5 5 4 1 0 0 0 0 1
0 0 0 0 0 0 0 0 0 0 1 2 2 2 1 0 0 0 1 2 4 5 6 6 5 5 4 4 3 3 2 2 3 4 6 7 5 2 1 1 1 1 2
0 0 0 0 0 0 0 0 0 0 1 3 3 3 2 1 0 0 0 1 2 3 4 4 4 4 4 3 3 3 3 3 3 4 6 7 5 3 2 2 2 3 3
0 0 0 0 0 0 0 0 0 1 2 3 3 3 3 2 1 1 0 0 0 1 1 2 3 3 3 3 3 3 3 4 5 4 4 4 4 3 3 3 3 3 3
0 0 0 0 0 0 0 0 0 1 2 2 2 3 3 3 3 2 1 1 0 0 0 1 2 2 2 2 2 1 2 4 5 5 3 3 3 3 3 2 2 2 1
1 0 0 0 0 0 0 0 0 0 1 1 1 1 2 2 3 3 3 2 1 0 0 0 1 1 1 2 2 2 3 4 4 3 2 2 2 2 1 1 1 1 0
2 1 1 0 0 0 0 0 0 0 0 0 0 0 1 1 1 2 3 3 2 1 0 0 0 0 0 1 2 4 6 5 3 1 1 0 1 1 0 0 0 0 0
2 3 3 2 0 0 0 0 0 0 0 0 0 0 0 0 0 1 1 2 2 2 1 0 0 0 0 0 1 4 7 7 4 2 1 0 0 0 0 0 0 0 0
3 4 4 3 1 1 1 0 0 0 0 0 0 0 0 0 0 0 0 1 1 1 1 0 0 0 0 0 1 4 6 7 6 5 3 2 2 1 0 0 0 0 0
4 4 4 4 3 2 1 0 0 0 0 0 0 0 0 0 0 0 0 0 0 0 1 1 1 0 0 0 0 2 4 7 8 7 6 6 5 3 1 0 0 0 0
4 3 3 4 4 3 1 0 0 0 0 0 0 0 0 0 0 0 0 0 0 0 0 0 1 1 1 1 1 1 3 6 9 9 9 9 8 6 4 2 1 1 0
3 2 2 2 3 3 1 1 1 1 0 0 0 0 0 0 0 0 1 1 1 0 0 0 0 1 3 3 3 2 3 6 8 8 8 9 9 8 7 6 4 3 2
3 3 3 3 3 3 3 3 3 2 1 0 1 0 0 1 1 1 2 2 1 0 0 0 0 1 3 4 3 3 4 5 6 5 5 7 7 7 7 8 7 6 5
3 4 4 4 5 5 5 5 5 3 1 0 0 0 1 2 2 3 4 4 2 0 0 0 0 0 1 2 1 1 2 3 3 2 2 2 4 4 5 6 6 6 6
3 3 3 4 5 6 6 5 5 4 3 1 1 1 2 3 3 5 5 5 4 2 0 0 0 0 0 0 0 0 1 1 2 2 1 1 1 2 3 3 3 3 4
2 1 2 3 5 6 6 5 5 4 4 3 2 2 3 3 3 4 4 5 6 4 1 0 1 1 1 1 0 0 0 0 1 1 1 1 1 1 1 1 1 2 3
3 3 4 4 5 6 6 5 4 5 5 4 4 4 4 3 3 3 3 4 6 6 4 2 3 3 3 2 1 0 0 0 1 1 1 1 0 0 0 0 0 1 2
6 6 7 7 7 7 7 6 7 9 8 7 7 7 6 3 2 3 4 6 7 7 6 5 5 6 5 4 3 1 0 0 0 0 0 0 0 0 0 0 0 0 1
7 7 7 8 9 9 9 9 11 13 12 11 10 9 7 5 3 3 5 7 7 7 7 6 6 6 6 6 4 2 1 0 0 0 0 0 0 0 0 0 0 0 0
10 9 8 9 10 10 10 10 11 14 15 13 11 10 9 8 7 6 6 7 8 8 8 7 7 6 7 7 5 3 2 1 1 2 1 0 0 0 0 0 0 0 0
16 14 13 13 13 12 12 12 11 12 14 13 11 10 10 10 10 9 7 7 8 9 9 9 8 7 7 8 7 5 4 4 3 3 2 1 0 0 0 0 0 0 0
20 19 18 17 15 14 13 12 10 10 12 12 10 10 10 11 11 9 6 5 6 7 9 10 9 7 7 7 7 6 5 5 5 4 4 2 1 0 0 0 0 0 0
19 19 19 18 16 13 11 8 6 8 10 10 9 10 10 10 10 8 6 4 4 5 7 9 9 7 7 7 5 4 3 4 5 6 5 4 2 1 0 0 0 0 0
14 15 15 15 14 12 8 4 3 6 8 8 8 9 9 9 9 7 6 5 5 5 5 7 7 7 7 7 5 3 1 2 5 6 6 5 4 2 1 0 0 0 0
11 11 11 11 11 10 7 3 2 6 8 7 6 7 7 7 7 7 7 7 7 7 6 5 5 5 5 4 3 3 2 3 4 5 6 6 6 5 3 1 0 0 0
11 10 10 10 10 9 7 3 2 6 7 6 6 6 5 6 6 6 7 8 9 8 7 5 3 2 2 1 2 2 3 3 5 5 6 7 8 7 4 2 1 0 0

GEFSMA_con_probscp_318.txt.gz
Probability
0 0 0 0 0 0 0 0 0 0 0 0 0 0 0 0 0 0 0 0 0 0 0 0 0 1 1 1 1 0 0 0 1 2 2 1 0 0 0 0 1 1 1
0 0 0 0 0 0 0 0 0 0 0 0 0 0 0 0 0 0 0 0 0 0 0 0 1 2 2 2 2 1 1 1 0 1 1 0 0 0 0 1 1 2 2
0 0 0 0 0 0 0 0 0 0 0 0 0 0 0 0 0 0 0 0 0 0 0 0 2 3 3 3 3 3 2 2 1 0 0 0 0 1 1 1 1 1 1
0 0 0 0 0 0 0 0 0 0 0 0 0 0 0 0 0 0 0 0 0 0 0 0 1 2 2 3 3 3 3 3 2 2 1 0 0 0 0 0 0 0 0
0 0 0 0 0 0 0 0 0 0 0 0 0 0 0 0 0 0 0 0 0 0 0 0 0 1 1 1 2 3 3 4 4 4 3 1 1 0 0 0 0 0 0
0 0 0 0 0 0 0 0 0 0 0 0 0 0 0 0 0 0 0 0 0 0 0 0 0 0 0 0 1 1 2 4 5 5 5 3 2 1 0 0 0 0 0
0 0 0 0 0 0 0 0 0 0 0 0 0 0 0 0 0 0 0 0 0 0 0 0 0 0 0 0 0 0 1 2 3 4 4 5 4 3 2 1 0 0 0
0 0 0 0 0 0 0 0 0 0 0 0 0 0 0 0 0 0 0 0 0 0 0 0 0 0 0 0 0 0 0 0 2 3 4 5 4 4 4 2 1 1 0
0 0 0 0 0 0 0 0 0 0 0 0 0 0 0 0 0 0 0 0 0 0 0 0 0 0 0 0 0 0 0 1 2 3 4 5 4 4 4 3 3 2 1
1 0 0 0 0 0 0 0 0 0 0 0 0 0 0 0 0 0 0 0 0 0 0 0 0 0 0 1 1 0 1 1 2 2 3 4 4 4 3 3 3 3 3
1 0 0 0 0 0 0 0 0 0 0 0 0 0 0 0 0 0 0 0 0 0 0 0 0 0 0 1 2 2 2 2 1 1 1 2 3 3 3 3 3 4 4
1 0 0 0 0 0 0 0 0 0 0 0 0 0 0 0 0 0 0 0 0 0 0 0 0 0 0 1 2 2 2 2 1 0 0 1 2 3 3 3 4 5 5
0 0 0 0 0 0 0 0 0 0 0 0 0 0 0 0 0 0 1 1 0 0 0 0 0 0 0 0 1 1 1 1 0 0 0 0 1 2 3 3 3 4 5
0 1 1 0 0 0 0 0 0 0 0 1 0 0 0 0 1 1 2 2 1 1 0 0 0 0 0 0 0 0 0 0 0 0 0 0 0 1 1 2 3 3 4
1 1 2 1 0 0 0 0 0 0 0 1 0 0 0 1 2 3 3 3 3 3 3 2 2 1 1 0 0 0 0 0 0 0 0 0 0 0 0 1 2 2 2
0 1 2 1 0 0 0 0 0 0 0 1 1 1 1 2 3 3 3 4 6 7 6 5 4 4 2 1 1 1 0 0 0 0 0 0 0 0 0 0 1 1 1
1 1 1 1 1 1 1 2 1 1 1 2 3 4 4 5 6 6 5 6 7 8 7 6 5 4 3 3 4 4 2 1 1 0 0 0 0 0 0 0 0 0 0
4 3 2 3 3 4 5 6 6 4 4 6 7 8 8 9 10 10 9 9 9 9 7 5 4 4 4 4 5 6 5 3 2 1 0 0 0 0 0 0 0 0 0
7 6 6 7 8 8 9 10 9 7 7 8 8 9 9 10 11 12 12 13 13 12 10 7 5 4 5 5 5 6 6 5 4 2 1 0 0 0 0 0 0 0 0
10 9 10 11 12 12 12 11 10 8 7 7 7 8 9 10 10 11 14 16 17 17 15 11 8 7 7 7 7 7 6 5 4 2 1 1 0 0 0 0 0 0 0
13 13 13 13 13 12 11 9 7 6 7 6 6 6 7 8 8 9 11 14 17 18 18 15 12 10 10 10 10 8 6 5 3 2 1 1 0 0 0 0 0 0 0
15 14 13 12 11 10 7 4 3 4 6 6 5 5 6 6 6 6 6 7 9 12 15 17 15 12 11 12 12 10 8 7 5 3 1 1 0 0 1 0 0 0 0
14 14 13 11 11 9 4 1 0 2 4 4 4 4 5 5 6 6 5 4 4 5 8 13 14 12 11 11 11 10 9 9 8 5 2 1 0 0 0 0 0 0 0
12 12 12 12 12 9 4 1 0 1 3 3 3 4 4 5 6 6 5 5 5 4 5 7 9 9 9 9 9 9 10 10 9 6 5 4 3 2 1 0 0 0 0
13 12 11 11 11 9 5 1 1 2 4 4 5 5 5 4 4 3 4 5 6 7 6 5 5 5 5 5 6 7 9 11 10 8 7 7 7 7 5 3 2 1 1
15 12 11 10 9 8 5 2 1 3 5 6 7 7 6 4 3 2 2 4 5 7 8 7 4 3 2 2 3 5 9 12 12 9 8 9 10 11 9 6 4 3 1

GEFSMA_con_probscp_324.txt.gz
Probability
2 3 5 5 4 3 2 1 0 0 0 0 0 0 0 0 0 0 0 0 1 1 0 0 0 0 1 2 3 2 1 0 0 0 0 0 0 0 1 1 2 3 3
2 3 3 4 3 2 1 0 0 0 0 0 0 0 0 0 0 0 0 0 1 2 1 0 0 0 1 2 3 3 2 2 1 1 0 0 0 0 1 2 2 3 3
2 2 2 2 2 1 0 0 0 0 0 0 0 0 0 0 0 0 0 0 1 2 2 1 1 1 1 2 3 3 4 4 4 3 2 1 1 1 0 1 1 2 2
1 1 1 1 1 1 0 0 0 0 0 0 0 0 0 0 0 0 0 0 0 1 2 3 2 2 1 1 3 4 4 4 5 5 5 4 2 1 0 0 0 1 1
0 0 1 1 1 1 1 1 0 0 0 0 0 0 0 0 0 0 0 0 1 1 3 3 3 2 1 1 4 5 5 5 5 6 6 5 3 1 1 0 0 0 0
0 0 0 1 1 3 3 2 1 1 0 0 0 0 0 0 0 0 0 0 1 2 3 3 2 1 1 1 3 4 6 6 6 6 6 5 4 3 3 1 1 0 0
1 1 1 1 3 4 3 2 1 1 1 1 1 0 0 1 1 0 0 0 1 3 3 2 1 1 1 1 1 2 4 5 6 7 7 7 6 6 5 4 3 2 1
2 2 2 2 2 3 2 2 2 2 2 2 2 1 1 1 1 0 0 0 1 2 3 1 1 1 1 1 1 1 2 3 6 8 9 9 8 8 7 6 5 5 4
1 1 1 1 1 1 1 2 2 3 3 3 3 2 1 1 1 1 0 0 1 2 2 1 1 1 1 2 2 2 2 3 5 6 8 9 9 9 8 7 6 6 6
1 0 0 0 1 1 1 1 2 3 3 3 4 4 3 2 2 2 1 0 0 1 2 2 2 3 3 4 3 2 1 1 2 4 5 8 9 9 7 7 6 7 8
1 0 0 0 1 2 1 1 2 3 3 4 6 7 7 5 5 3 2 2 1 1 3 3 2 3 4 3 2 0 0 0 1 2 4 6 8 8 7 7 6 7 8
0 0 0 0 1 1 1 2 4 4 5 6 7 8 8 7 6 5 4 4 3 2 2 2 2 2 2 2 2 1 0 0 0 1 3 4 6 6 6 6 5 6 7
0 1 1 1 2 3 3 5 7 8 10 10 8 8 9 9 8 8 7 6 5 3 2 1 2 1 1 2 3 3 1 0 0 0 1 3 4 3 3 2 3 4 6
1 2 3 4 5 6 6 8 11 12 13 13 11 12 13 12 12 12 12 12 8 4 2 2 2 1 1 3 4 4 3 2 0 0 0 1 2 2 1 0 1 2 3
3 4 5 7 8 10 11 13 14 15 16 17 16 16 17 16 16 18 18 18 14 9 5 3 3 2 3 5 6 5 5 4 2 0 0 0 0 0 0 0 0 1 1
6 7 9 10 12 13 16 16 17 18 18 19 19 19 19 18 19 21 22 22 20 16 10 6 6 6 7 7 8 8 8 7 5 2 0 0 0 0 0 0 0 0 0
11 12 14 15 15 16 18 20 20 19 18 18 18 17 19 20 20 21 22 23 22 20 15 10 9 12 13 11 11 11 10 10 8 4 1 0 0 0 0 0 0 0 0
16 17 18 18 19 19 20 21 20 19 18 18 17 16 18 21 22 22 22 21 20 20 19 14 13 17 18 16 13 12 11 12 11 6 2 0 0 0 0 0 0 0 0
19 20 21 21 20 20 21 22 21 20 20 19 17 17 18 20 22 24 23 21 19 19 20 18 17 20 21 18 16 13 13 14 13 8 4 1 1 0 0 0 0 0 0
20 21 22 23 22 21 21 22 23 22 21 20 19 18 18 18 20 21 22 21 20 19 20 19 19 20 22 20 18 15 14 15 13 9 6 4 3 2 1 0 0 0 0
22 22 22 23 23 21 19 19 21 21 20 20 20 19 18 17 15 14 15 17 17 17 17 17 18 19 21 21 19 17 14 14 13 11 9 8 8 8 7 4 1 0 0
26 25 24 23 23 20 15 12 15 18 19 19 19 19 18 16 12 9 9 8 9 11 12 13 15 16 17 19 21 20 18 16 17 16 15 13 13 16 15 9 3 0 0
29 28 26 25 23 18 11 7 9 14 17 17 18 18 16 14 12 11 9 7 7 7 8 11 13 13 14 17 22 23 22 21 21 21 20 18 18 20 19 13 5 1 0
27 28 27 26 25 19 10 5 6 11 15 15 17 18 16 14 13 13 13 12 12 11 9 8 9 10 10 13 18 21 23 23 22 22 23 22 21 18 16 14 7 1 0
25 25 26 26 25 19 10 4 5 11 15 15 16 15 14 12 12 11 12 13 14 14 12 8 6 6 6 6 9 15 20 21 21 21 23 23 20 16 14 13 9 4 2
24 24 25 26 23 18 9 3 4 11 15 15 15 14 10 9 9 8 9 11 13 13 12 9 6 4 3 1 3 10 17 20 20 20 23 23 20 16 14 13 11 7 5